Wetterdaten: Dienstag, 11.07.2017
Datum Zeit Temp. Aussen Temp. o. S. +5cm Feuchte Auss BlattFeu 1 Luftdruck Regen Sonnenschein Regendauer Solar Windben Empfang
11.07.2017 00:00 19,4 C 18,3 C 17,2 C 79 % 0 lf 1008,8 hPa 0,0 l/m 0 min 0 min 0 W/m 0,0 km/h (0 Bft) 89,36 %
11.07.2017 00:02 19,4 C 18,3 C 17,2 C 79 % 0 lf 1008,9 hPa 0,0 l/m 0 min 0 min 0 W/m 0,0 km/h (0 Bft) 90,91 %
11.07.2017 00:04 19,4 C 18,3 C 17,2 C 79 % 0 lf 1008,8 hPa 0,0 l/m 0 min 0 min 0 W/m 0,0 km/h (0 Bft) 93,62 %
11.07.2017 00:06 19,3 C 18,3 C 17,2 C 79 % 0 lf 1008,8 hPa 0,0 l/m 0 min 0 min 0 W/m 0,0 km/h (0 Bft) 94,74 %
11.07.2017 00:10 19,3 C 18,3 C 17,2 C 79 % 0 lf 1008,8 hPa 0,0 l/m 0 min 0 min 0 W/m 0,0 km/h (0 Bft) 96,81 %
11.07.2017 00:12 19,3 C 18,3 C 17,2 C 80 % 0 lf 1008,8 hPa 0,0 l/m 0 min 0 min 0 W/m 0,0 km/h (0 Bft) 97,87 %
11.07.2017 00:14 19,2 C 18,3 C 17,2 C 80 % 0 lf 1008,8 hPa 0,0 l/m 0 min 0 min 0 W/m 0,0 km/h (0 Bft) 95,74 %
11.07.2017 00:16 19,2 C 18,3 C 17,2 C 80 % 0 lf 1008,9 hPa 0,0 l/m 0 min 0 min 0 W/m 0,0 km/h (0 Bft) 95,74 %
11.07.2017 00:18 19,2 C 18,3 C 17,2 C 80 % 0 lf 1008,9 hPa 0,0 l/m 0 min 0 min 0 W/m 0,0 km/h (0 Bft) 91,30 %
11.07.2017 00:20 19,2 C 18,3 C 17,2 C 80 % 0 lf 1008,9 hPa 0,0 l/m 0 min 0 min 0 W/m 0,0 km/h (0 Bft) 95,74 %
11.07.2017 00:22 19,2 C 18,3 C 17,2 C 80 % 0 lf 1008,8 hPa 0,0 l/m 0 min 0 min 0 W/m 0,0 km/h (0 Bft) 89,36 %
11.07.2017 00:24 19,2 C 18,3 C 17,2 C 80 % 0 lf 1008,8 hPa 0,0 l/m 0 min 0 min 0 W/m 0,0 km/h (0 Bft) 95,74 %
11.07.2017 00:26 19,1 C 18,3 C 16,7 C 80 % 0 lf 1008,8 hPa 0,0 l/m 0 min 0 min 0 W/m 0,0 km/h (0 Bft) 93,62 %
11.07.2017 00:28 19,1 C 17,8 C 16,7 C 80 % 0 lf 1008,8 hPa 0,0 l/m 0 min 0 min 0 W/m 0,0 km/h (0 Bft) 95,74 %
11.07.2017 00:30 19,1 C 17,8 C 16,7 C 81 % 0 lf 1008,8 hPa 0,0 l/m 0 min 0 min 0 W/m 6,3 km/h (2 Bft) 93,48 %
11.07.2017 00:32 19,1 C 17,8 C 16,7 C 81 % 0 lf 1008,8 hPa 0,0 l/m 0 min 0 min 3 W/m 6,3 km/h (2 Bft) 95,74 %
11.07.2017 00:34 19,1 C 17,8 C 16,7 C 81 % 0 lf 1008,8 hPa 0,0 l/m 0 min 0 min 5 W/m 6,3 km/h (2 Bft) 91,49 %
11.07.2017 00:36 19,0 C 17,8 C 16,7 C 81 % 0 lf 1008,8 hPa 0,0 l/m 0 min 0 min 5 W/m 6,3 km/h (2 Bft) 91,49 %
11.07.2017 00:38 19,0 C 17,2 C 16,7 C 81 % 0 lf 1008,8 hPa 0,0 l/m 0 min 0 min 5 W/m 4,2 km/h (1 Bft) 95,74 %
11.07.2017 00:40 19,0 C 17,8 C 16,7 C 81 % 0 lf 1008,8 hPa 0,0 l/m 0 min 0 min 4 W/m 6,3 km/h (2 Bft) 91,49 %
11.07.2017 00:42 18,9 C 17,8 C 16,7 C 81 % 0 lf 1008,8 hPa 0,0 l/m 0 min 0 min 0 W/m 6,3 km/h (2 Bft) 89,13 %
11.07.2017 00:44 18,9 C 17,8 C 16,1 C 81 % 0 lf 1008,8 hPa 0,0 l/m 0 min 0 min 0 W/m 6,3 km/h (2 Bft) 89,36 %
11.07.2017 00:46 18,9 C 17,8 C 16,1 C 81 % 0 lf 1008,8 hPa 0,0 l/m 0 min 0 min 0 W/m 6,3 km/h (2 Bft) 93,62 %
11.07.2017 00:48 18,9 C 17,8 C 16,1 C 81 % 0 lf 1008,8 hPa 0,0 l/m 0 min 0 min 0 W/m 6,3 km/h (2 Bft) 93,62 %
11.07.2017 00:50 18,8 C 17,8 C 16,1 C 81 % 0 lf 1008,8 hPa 0,0 l/m 0 min 0 min 0 W/m 6,3 km/h (2 Bft) 91,49 %
11.07.2017 00:52 18,8 C 17,8 C 16,1 C 81 % 0 lf 1008,8 hPa 0,0 l/m 0 min 0 min 0 W/m 6,3 km/h (2 Bft) 86,96 %
11.07.2017 00:54 18,8 C 17,8 C 16,1 C 81 % 0 lf 1008,8 hPa 0,0 l/m 0 min 0 min 0 W/m 6,3 km/h (2 Bft) 93,62 %
11.07.2017 00:56 18,7 C 17,8 C 16,1 C 81 % 0 lf 1008,8 hPa 0,0 l/m 0 min 0 min 0 W/m 6,3 km/h (2 Bft) 93,62 %
11.07.2017 00:58 18,7 C 17,8 C 16,1 C 81 % 0 lf 1008,8 hPa 0,0 l/m 0 min 0 min 0 W/m 6,3 km/h (2 Bft) 89,36 %
11.07.2017 01:00 18,7 C 17,8 C 16,1 C 82 % 0 lf 1008,9 hPa 0,0 l/m 0 min 0 min 0 W/m 6,3 km/h (2 Bft) 93,62 %
11.07.2017 01:02 18,6 C 17,8 C 16,7 C 82 % 0 lf 1008,8 hPa 0,0 l/m 0 min 0 min 0 W/m 6,3 km/h (2 Bft) 91,49 %
11.07.2017 01:04 18,6 C 17,8 C 16,7 C 82 % 0 lf 1008,8 hPa 0,0 l/m 0 min 0 min 4 W/m 6,3 km/h (2 Bft) 93,48 %
11.07.2017 01:06 18,6 C 17,8 C 16,7 C 82 % 0 lf 1008,8 hPa 0,0 l/m 0 min 0 min 5 W/m 6,3 km/h (2 Bft) 93,62 %
11.07.2017 01:08 18,5 C 17,8 C 16,1 C 82 % 0 lf 1008,8 hPa 0,0 l/m 0 min 0 min 0 W/m 8,4 km/h (2 Bft) 95,74 %
11.07.2017 01:10 18,5 C 17,8 C 16,1 C 82 % 0 lf 1008,8 hPa 0,0 l/m 0 min 0 min 5 W/m 6,3 km/h (2 Bft) 97,87 %
11.07.2017 01:12 18,5 C 17,8 C 16,1 C 82 % 0 lf 1008,8 hPa 0,0 l/m 0 min 0 min 5 W/m 6,3 km/h (2 Bft) 95,74 %
11.07.2017 01:14 18,4 C 17,8 C 16,1 C 82 % 0 lf 1008,7 hPa 0,0 l/m 0 min 0 min 0 W/m 4,2 km/h (1 Bft) 93,62 %
11.07.2017 01:16 18,4 C 17,2 C 16,1 C 82 % 0 lf 1008,8 hPa 0,0 l/m 0 min 0 min 3 W/m 8,4 km/h (2 Bft) 97,83 %
11.07.2017 01:18 18,4 C 17,8 C 16,7 C 82 % 0 lf 1008,7 hPa 0,0 l/m 0 min 0 min 0 W/m 10,5 km/h (2 Bft) 97,87 %
11.07.2017 01:20 18,4 C 17,8 C 16,7 C 82 % 0 lf 1008,7 hPa 0,0 l/m 0 min 0 min 0 W/m 8,4 km/h (2 Bft) 97,87 %
11.07.2017 01:22 18,4 C 17,8 C 16,7 C 82 % 0 lf 1008,7 hPa 0,0 l/m 0 min 0 min 0 W/m 6,3 km/h (2 Bft) 94,34 %
11.07.2017 01:24 18,3 C 17,8 C 16,7 C 82 % 0 lf 1008,8 hPa 0,0 l/m 0 min 0 min 0 W/m 8,4 km/h (2 Bft) 97,87 %
11.07.2017 01:26 18,3 C 17,8 C 16,7 C 83 % 0 lf 1008,8 hPa 0,0 l/m 0 min 0 min 0 W/m 6,3 km/h (2 Bft) 93,62 %
11.07.2017 01:28 18,3 C 17,8 C 16,7 C 83 % 0 lf 1008,7 hPa 0,0 l/m 0 min 0 min 0 W/m 4,2 km/h (1 Bft) 97,87 %
11.07.2017 01:30 18,3 C 17,8 C 16,7 C 83 % 0 lf 1008,8 hPa 0,0 l/m 0 min 0 min 0 W/m 6,3 km/h (2 Bft) 97,87 %
11.07.2017 01:32 18,3 C 17,8 C 16,7 C 83 % 0 lf 1008,7 hPa 0,0 l/m 0 min 0 min 0 W/m 8,4 km/h (2 Bft) 97,92 %
11.07.2017 01:34 18,3 C 17,8 C 16,7 C 83 % 0 lf 1008,7 hPa 0,0 l/m 0 min 0 min 0 W/m 8,4 km/h (2 Bft) 97,87 %
11.07.2017 01:36 18,3 C 17,8 C 16,7 C 83 % 0 lf 1008,7 hPa 0,0 l/m 0 min 0 min 0 W/m 8,4 km/h (2 Bft) 97,87 %
11.07.2017 01:38 18,3 C 17,8 C 16,7 C 83 % 0 lf 1008,8 hPa 0,0 l/m 0 min 0 min 0 W/m 8,4 km/h (2 Bft) 97,87 %
11.07.2017 01:40 18,3 C 17,8 C 17,2 C 83 % 0 lf 1008,8 hPa 0,0 l/m 0 min 0 min 0 W/m 10,5 km/h (2 Bft) 97,87 %
11.07.2017 01:42 18,3 C 18,3 C 17,2 C 83 % 0 lf 1008,8 hPa 0,0 l/m 0 min 0 min 0 W/m 12,6 km/h (3 Bft) 97,87 %
11.07.2017 01:44 18,3 C 18,3 C 17,2 C 84 % 0 lf 1008,9 hPa 0,0 l/m 0 min 0 min 0 W/m 8,4 km/h (2 Bft) 93,48 %
11.07.2017 01:46 18,3 C 18,3 C 17,2 C 84 % 0 lf 1008,8 hPa 0,0 l/m 0 min 0 min 0 W/m 12,6 km/h (3 Bft) 97,87 %
11.07.2017 01:48 18,3 C 17,8 C 16,7 C 84 % 0 lf 1008,8 hPa 0,0 l/m 0 min 0 min 0 W/m 6,3 km/h (2 Bft) 97,87 %
11.07.2017 01:50 18,3 C 17,8 C 16,7 C 84 % 0 lf 1008,9 hPa 0,0 l/m 0 min 0 min 0 W/m 10,5 km/h (2 Bft) 97,87 %
11.07.2017 01:52 18,3 C 18,3 C 16,7 C 84 % 0 lf 1008,9 hPa 0,0 l/m 0 min 0 min 0 W/m 16,7 km/h (3 Bft) 95,83 %
11.07.2017 01:54 18,3 C 18,3 C 16,7 C 84 % 0 lf 1009,0 hPa 0,0 l/m 0 min 0 min 0 W/m 16,7 km/h (3 Bft) 97,87 %
11.07.2017 01:56 18,3 C 18,3 C 16,7 C 84 % 0 lf 1009,0 hPa 0,0 l/m 0 min 0 min 0 W/m 12,6 km/h (3 Bft) 97,83 %
11.07.2017 01:58 18,3 C 17,8 C 16,7 C 84 % 0 lf 1009,0 hPa 0,0 l/m 0 min 0 min 0 W/m 12,6 km/h (3 Bft) 97,87 %
11.07.2017 02:00 18,3 C 17,8 C 16,7 C 84 % 0 lf 1009,0 hPa 0,0 l/m 0 min 0 min 0 W/m 16,7 km/h (3 Bft) 100,00 %
11.07.2017 02:02 18,3 C 17,8 C 17,2 C 84 % 0 lf 1009,0 hPa 0,0 l/m 0 min 0 min 0 W/m 16,7 km/h (3 Bft) 100,00 %
11.07.2017 02:04 18,3 C 17,8 C 17,2 C 84 % 0 lf 1009,0 hPa 0,0 l/m 0 min 0 min 2 W/m 16,7 km/h (3 Bft) 100,00 %
11.07.2017 02:06 18,3 C 17,8 C 17,2 C 84 % 0 lf 1009,1 hPa 0,0 l/m 0 min 0 min 0 W/m 16,7 km/h (3 Bft) 100,00 %
11.07.2017 02:08 18,3 C 17,8 C 16,7 C 83 % 0 lf 1009,0 hPa 0,0 l/m 0 min 0 min 0 W/m 14,6 km/h (3 Bft) 97,83 %
11.07.2017 02:10 18,3 C 17,8 C 16,7 C 83 % 0 lf 1009,0 hPa 0,0 l/m 0 min 0 min 0 W/m 18,8 km/h (3 Bft) 97,87 %
11.07.2017 02:12 18,3 C 17,8 C 16,7 C 83 % 0 lf 1009,0 hPa 0,0 l/m 0 min 0 min 0 W/m 18,8 km/h (3 Bft) 100,00 %
11.07.2017 02:14 18,3 C 17,8 C 16,7 C 83 % 0 lf 1009,0 hPa 0,0 l/m 0 min 0 min 0 W/m 18,8 km/h (3 Bft) 100,00 %
11.07.2017 02:16 18,3 C 17,8 C 16,7 C 83 % 0 lf 1009,0 hPa 0,0 l/m 0 min 0 min 0 W/m 18,8 km/h (3 Bft) 93,62 %
11.07.2017 02:18 18,3 C 17,8 C 16,7 C 83 % 0 lf 1009,0 hPa 0,0 l/m 0 min 0 min 0 W/m 16,7 km/h (3 Bft) 100,00 %
11.07.2017 02:20 18,2 C 17,8 C 16,7 C 83 % 0 lf 1009,0 hPa 0,0 l/m 0 min 0 min 0 W/m 23,0 km/h (4 Bft) 100,00 %
11.07.2017 02:22 18,2 C 17,8 C 16,7 C 83 % 0 lf 1009,0 hPa 0,0 l/m 0 min 0 min 0 W/m 18,8 km/h (3 Bft) 97,87 %
11.07.2017 02:24 18,2 C 17,8 C 16,1 C 82 % 0 lf 1009,0 hPa 0,0 l/m 0 min 0 min 0 W/m 14,6 km/h (3 Bft) 100,00 %
11.07.2017 02:26 18,1 C 17,2 C 16,1 C 82 % 0 lf 1009,0 hPa 0,0 l/m 0 min 0 min 0 W/m 14,6 km/h (3 Bft) 95,74 %
11.07.2017 02:28 18,1 C 17,2 C 16,1 C 82 % 0 lf 1009,0 hPa 0,0 l/m 0 min 0 min 0 W/m 20,9 km/h (4 Bft) 97,87 %
11.07.2017 02:30 18,1 C 17,2 C 16,1 C 82 % 0 lf 1009,0 hPa 0,0 l/m 0 min 0 min 0 W/m 23,0 km/h (4 Bft) 100,00 %
11.07.2017 02:32 18,0 C 17,2 C 16,1 C 82 % 0 lf 1009,0 hPa 0,0 l/m 0 min 0 min 0 W/m 18,8 km/h (3 Bft) 97,30 %
11.07.2017 02:34 18,0 C 17,2 C 16,1 C 82 % 0 lf 1009,1 hPa 0,0 l/m 0 min 0 min 0 W/m 18,8 km/h (3 Bft) 100,00 %
11.07.2017 02:36 17,9 C 17,2 C 16,1 C 81 % 0 lf 1009,0 hPa 0,0 l/m 0 min 0 min 0 W/m 16,7 km/h (3 Bft) 100,00 %
11.07.2017 02:38 17,9 C 17,2 C 16,1 C 81 % 0 lf 1009,0 hPa 0,0 l/m 0 min 0 min 0 W/m 20,9 km/h (4 Bft) 97,83 %
11.07.2017 02:40 17,9 C 17,2 C 16,1 C 81 % 0 lf 1009,0 hPa 0,0 l/m 0 min 0 min 0 W/m 12,6 km/h (3 Bft) 95,74 %
11.07.2017 02:42 17,8 C 17,2 C 15,6 C 81 % 0 lf 1009,0 hPa 0,0 l/m 0 min 0 min 0 W/m 16,7 km/h (3 Bft) 97,87 %
11.07.2017 02:44 17,8 C 17,2 C 15,6 C 81 % 0 lf 1009,0 hPa 0,0 l/m 0 min 0 min 0 W/m 14,6 km/h (3 Bft) 95,74 %
11.07.2017 02:46 17,8 C 17,2 C 15,6 C 81 % 0 lf 1009,0 hPa 0,0 l/m 0 min 0 min 0 W/m 23,0 km/h (4 Bft) 95,74 %
11.07.2017 02:48 17,7 C 16,7 C 15,6 C 82 % 0 lf 1009,0 hPa 0,0 l/m 0 min 0 min 0 W/m 16,7 km/h (3 Bft) 97,87 %
11.07.2017 02:50 17,7 C 16,7 C 15,6 C 82 % 0 lf 1009,0 hPa 0,0 l/m 0 min 0 min 0 W/m 18,8 km/h (3 Bft) 97,83 %
11.07.2017 02:52 17,6 C 16,7 C 15,6 C 82 % 0 lf 1009,0 hPa 0,0 l/m 0 min 0 min 0 W/m 18,8 km/h (3 Bft) 95,74 %
11.07.2017 02:54 17,6 C 16,7 C 15,6 C 82 % 0 lf 1009,0 hPa 0,0 l/m 0 min 0 min 0 W/m 14,6 km/h (3 Bft) 95,74 %
11.07.2017 02:56 17,6 C 16,7 C 15,6 C 82 % 0 lf 1008,9 hPa 0,0 l/m 0 min 0 min 0 W/m 14,6 km/h (3 Bft) 95,74 %
11.07.2017 02:58 17,5 C 16,7 C 15,6 C 82 % 0 lf 1008,9 hPa 0,0 l/m 0 min 0 min 0 W/m 18,8 km/h (3 Bft) 95,74 %
11.07.2017 03:00 17,5 C 16,7 C 15,6 C 82 % 0 lf 1008,9 hPa 0,0 l/m 0 min 0 min 0 W/m 14,6 km/h (3 Bft) 95,74 %
11.07.2017 03:02 17,4 C 16,7 C 15,6 C 82 % 0 lf 1009,0 hPa 0,0 l/m 0 min 0 min 0 W/m 16,7 km/h (3 Bft) 93,48 %
11.07.2017 03:04 17,4 C 16,7 C 15,6 C 82 % 0 lf 1008,9 hPa 0,0 l/m 0 min 0 min 0 W/m 23,0 km/h (4 Bft) 93,62 %
11.07.2017 03:06 17,3 C 16,7 C 15,6 C 82 % 0 lf 1008,9 hPa 0,0 l/m 0 min 0 min 0 W/m 18,8 km/h (3 Bft) 93,62 %
11.07.2017 03:08 17,3 C 16,7 C 15,0 C 82 % 0 lf 1008,9 hPa 0,0 l/m 0 min 0 min 0 W/m 25,1 km/h (4 Bft) 89,36 %
11.07.2017 03:10 17,2 C 16,7 C 15,0 C 82 % 0 lf 1009,0 hPa 0,0 l/m 0 min 0 min 0 W/m 20,9 km/h (4 Bft) 93,62 %
11.07.2017 03:12 17,2 C 16,7 C 15,0 C 82 % 0 lf 1008,9 hPa 0,0 l/m 0 min 0 min 0 W/m 25,1 km/h (4 Bft) 91,49 %
11.07.2017 03:14 17,2 C 16,7 C 15,0 C 82 % 0 lf 1009,0 hPa 0,0 l/m 0 min 0 min 0 W/m 18,8 km/h (3 Bft) 95,65 %
11.07.2017 03:16 17,1 C 16,1 C 15,0 C 82 % 0 lf 1009,0 hPa 0,0 l/m 0 min 0 min 0 W/m 14,6 km/h (3 Bft) 93,62 %
11.07.2017 03:18 17,1 C 16,1 C 15,0 C 82 % 0 lf 1009,0 hPa 0,0 l/m 0 min 0 min 0 W/m 16,7 km/h (3 Bft) 95,74 %
11.07.2017 03:20 17,1 C 16,1 C 15,0 C 82 % 0 lf 1008,9 hPa 0,0 l/m 0 min 0 min 0 W/m 12,6 km/h (3 Bft) 93,62 %
11.07.2017 03:22 17,1 C 16,1 C 15,0 C 82 % 0 lf 1008,9 hPa 0,0 l/m 0 min 0 min 0 W/m 14,6 km/h (3 Bft) 93,62 %
11.07.2017 03:24 17,0 C 16,1 C 15,0 C 82 % 0 lf 1009,0 hPa 0,0 l/m 0 min 0 min 0 W/m 12,6 km/h (3 Bft) 91,49 %
11.07.2017 03:26 17,0 C 16,1 C 15,0 C 82 % 0 lf 1008,9 hPa 0,0 l/m 0 min 0 min 0 W/m 12,6 km/h (3 Bft) 91,30 %
11.07.2017 03:28 16,9 C 16,1 C 15,0 C 83 % 0 lf 1008,9 hPa 0,0 l/m 0 min 0 min 1 W/m 14,6 km/h (3 Bft) 95,74 %
11.07.2017 03:30 16,9 C 16,1 C 15,0 C 83 % 0 lf 1008,9 hPa 0,0 l/m 0 min 0 min 5 W/m 14,6 km/h (3 Bft) 95,74 %
11.07.2017 03:32 16,8 C 16,1 C 15,0 C 83 % 0 lf 1008,9 hPa 0,0 l/m 0 min 0 min 0 W/m 12,6 km/h (3 Bft) 90,57 %
11.07.2017 03:34 16,8 C 16,1 C 14,4 C 83 % 0 lf 1008,9 hPa 0,0 l/m 0 min 0 min 0 W/m 14,6 km/h (3 Bft) 93,62 %
11.07.2017 03:36 16,8 C 15,6 C 14,4 C 83 % 0 lf 1008,9 hPa 0,0 l/m 0 min 0 min 0 W/m 18,8 km/h (3 Bft) 96,00 %
11.07.2017 03:38 16,7 C 15,6 C 14,4 C 83 % 0 lf 1008,9 hPa 0,0 l/m 0 min 0 min 0 W/m 12,6 km/h (3 Bft) 95,74 %
11.07.2017 03:40 16,7 C 15,6 C 14,4 C 83 % 0 lf 1008,9 hPa 0,0 l/m 0 min 0 min 0 W/m 10,5 km/h (2 Bft) 93,62 %
11.07.2017 03:42 16,7 C 15,6 C 14,4 C 83 % 0 lf 1009,0 hPa 0,0 l/m 0 min 0 min 0 W/m 12,6 km/h (3 Bft) 95,65 %
11.07.2017 03:44 16,6 C 15,6 C 14,4 C 83 % 0 lf 1008,9 hPa 0,0 l/m 0 min 0 min 0 W/m 18,8 km/h (3 Bft) 97,87 %
11.07.2017 03:46 16,6 C 15,6 C 14,4 C 83 % 0 lf 1008,9 hPa 0,0 l/m 0 min 0 min 0 W/m 12,6 km/h (3 Bft) 97,87 %
11.07.2017 03:48 16,6 C 15,6 C 14,4 C 83 % 0 lf 1008,9 hPa 0,0 l/m 0 min 0 min 0 W/m 12,6 km/h (3 Bft) 93,62 %
11.07.2017 03:50 16,5 C 15,6 C 14,4 C 83 % 0 lf 1008,9 hPa 0,0 l/m 0 min 0 min 0 W/m 14,6 km/h (3 Bft) 97,87 %
11.07.2017 03:52 16,4 C 15,6 C 14,4 C 83 % 0 lf 1008,9 hPa 0,0 l/m 0 min 0 min 0 W/m 12,6 km/h (3 Bft) 100,00 %
11.07.2017 03:54 16,4 C 15,6 C 14,4 C 83 % 0 lf 1008,9 hPa 0,0 l/m 0 min 0 min 0 W/m 14,6 km/h (3 Bft) 100,00 %
11.07.2017 03:56 16,4 C 15,6 C 14,4 C 83 % 0 lf 1008,9 hPa 0,0 l/m 0 min 0 min 0 W/m 12,6 km/h (3 Bft) 100,00 %
11.07.2017 03:58 16,3 C 15,6 C 14,4 C 83 % 0 lf 1008,9 hPa 0,0 l/m 0 min 0 min 0 W/m 12,6 km/h (3 Bft) 97,87 %
11.07.2017 04:00 16,3 C 15,6 C 13,9 C 83 % 0 lf 1008,9 hPa 0,0 l/m 0 min 0 min 0 W/m 10,5 km/h (2 Bft) 97,87 %
11.07.2017 04:02 16,3 C 15,6 C 13,9 C 83 % 0 lf 1008,9 hPa 0,0 l/m 0 min 0 min 0 W/m 10,5 km/h (2 Bft) 100,00 %
11.07.2017 04:04 16,2 C 15,6 C 13,9 C 83 % 0 lf 1008,8 hPa 0,0 l/m 0 min 0 min 0 W/m 12,6 km/h (3 Bft) 91,30 %
11.07.2017 04:06 16,2 C 15,6 C 13,9 C 83 % 0 lf 1008,9 hPa 0,0 l/m 0 min 0 min 0 W/m 8,4 km/h (2 Bft) 100,00 %
11.07.2017 04:08 16,2 C 15,6 C 13,9 C 83 % 0 lf 1008,9 hPa 0,0 l/m 0 min 0 min 0 W/m 8,4 km/h (2 Bft) 100,00 %
11.07.2017 04:10 16,2 C 15,6 C 13,9 C 83 % 0 lf 1008,8 hPa 0,0 l/m 0 min 0 min 0 W/m 12,6 km/h (3 Bft) 100,00 %
11.07.2017 04:12 16,1 C 15,6 C 13,9 C 84 % 0 lf 1008,9 hPa 0,0 l/m 0 min 0 min 0 W/m 10,5 km/h (2 Bft) 98,28 %
11.07.2017 04:14 16,1 C 15,0 C 13,9 C 84 % 0 lf 1008,9 hPa 0,0 l/m 0 min 0 min 0 W/m 8,4 km/h (2 Bft) 100,00 %
11.07.2017 04:16 16,1 C 15,0 C 13,9 C 84 % 0 lf 1008,8 hPa 0,0 l/m 0 min 0 min 0 W/m 10,5 km/h (2 Bft) 97,83 %
11.07.2017 04:18 16,1 C 15,0 C 13,9 C 84 % 0 lf 1008,9 hPa 0,0 l/m 0 min 0 min 0 W/m 8,4 km/h (2 Bft) 97,87 %
11.07.2017 04:20 16,0 C 15,0 C 13,9 C 84 % 0 lf 1008,9 hPa 0,0 l/m 0 min 0 min 0 W/m 10,5 km/h (2 Bft) 100,00 %
11.07.2017 04:22 16,0 C 15,0 C 13,9 C 84 % 0 lf 1008,9 hPa 0,0 l/m 0 min 0 min 0 W/m 12,6 km/h (3 Bft) 100,00 %
11.07.2017 04:24 15,9 C 15,0 C 13,9 C 84 % 0 lf 1008,9 hPa 0,0 l/m 0 min 0 min 0 W/m 6,3 km/h (2 Bft) 97,87 %
11.07.2017 04:26 15,9 C 15,0 C 13,9 C 84 % 0 lf 1008,9 hPa 0,0 l/m 0 min 0 min 0 W/m 10,5 km/h (2 Bft) 100,00 %
11.07.2017 04:28 15,9 C 15,0 C 13,9 C 84 % 0 lf 1008,9 hPa 0,0 l/m 0 min 0 min 0 W/m 10,5 km/h (2 Bft) 97,83 %
11.07.2017 04:30 15,9 C 15,0 C 13,9 C 84 % 0 lf 1008,9 hPa 0,0 l/m 0 min 0 min 0 W/m 8,4 km/h (2 Bft) 100,00 %
11.07.2017 04:32 15,8 C 15,0 C 13,9 C 84 % 0 lf 1008,9 hPa 0,0 l/m 0 min 0 min 0 W/m 6,3 km/h (2 Bft) 97,92 %
11.07.2017 04:34 15,8 C 14,4 C 13,9 C 84 % 0 lf 1008,9 hPa 0,0 l/m 0 min 0 min 0 W/m 6,3 km/h (2 Bft) 95,74 %
11.07.2017 04:36 15,8 C 14,4 C 13,3 C 84 % 0 lf 1009,0 hPa 0,0 l/m 0 min 0 min 0 W/m 8,4 km/h (2 Bft) 93,62 %
11.07.2017 04:38 15,8 C 14,4 C 13,9 C 84 % 0 lf 1009,0 hPa 0,0 l/m 0 min 0 min 0 W/m 12,6 km/h (3 Bft) 95,74 %
11.07.2017 04:40 15,7 C 15,0 C 13,9 C 85 % 0 lf 1009,0 hPa 0,0 l/m 0 min 0 min 0 W/m 8,4 km/h (2 Bft) 93,48 %
11.07.2017 04:42 15,7 C 14,4 C 13,9 C 85 % 0 lf 1009,0 hPa 0,0 l/m 0 min 0 min 0 W/m 8,4 km/h (2 Bft) 97,87 %
11.07.2017 04:44 15,7 C 15,0 C 13,3 C 85 % 0 lf 1009,0 hPa 0,0 l/m 0 min 0 min 0 W/m 10,5 km/h (2 Bft) 95,74 %
11.07.2017 04:46 15,7 C 15,0 C 13,3 C 85 % 0 lf 1009,0 hPa 0,0 l/m 0 min 0 min 0 W/m 10,5 km/h (2 Bft) 95,74 %
11.07.2017 04:48 15,6 C 14,4 C 13,3 C 85 % 0 lf 1009,0 hPa 0,0 l/m 0 min 0 min 0 W/m 8,4 km/h (2 Bft) 89,19 %
11.07.2017 04:50 15,6 C 14,4 C 13,3 C 85 % 0 lf 1009,0 hPa 0,0 l/m 0 min 0 min 0 W/m 8,4 km/h (2 Bft) 95,74 %
11.07.2017 04:52 15,6 C 15,0 C 13,3 C 85 % 0 lf 1009,0 hPa 0,0 l/m 0 min 0 min 0 W/m 12,6 km/h (3 Bft) 95,74 %
11.07.2017 04:54 15,6 C 15,0 C 13,3 C 85 % 0 lf 1009,0 hPa 0,0 l/m 0 min 0 min 0 W/m 12,6 km/h (3 Bft) 95,74 %
11.07.2017 04:56 15,5 C 15,0 C 13,9 C 85 % 0 lf 1009,1 hPa 0,0 l/m 0 min 0 min 0 W/m 10,5 km/h (2 Bft) 93,62 %
11.07.2017 04:58 15,5 C 15,0 C 13,9 C 85 % 0 lf 1009,0 hPa 0,0 l/m 0 min 0 min 0 W/m 16,7 km/h (3 Bft) 91,30 %
11.07.2017 05:00 15,5 C 15,0 C 13,9 C 86 % 0 lf 1009,1 hPa 0,0 l/m 0 min 0 min 0 W/m 12,6 km/h (3 Bft) 93,62 %
11.07.2017 05:02 15,5 C 15,0 C 13,9 C 86 % 0 lf 1009,1 hPa 0,0 l/m 0 min 0 min 0 W/m 12,6 km/h (3 Bft) 95,74 %
11.07.2017 05:04 15,4 C 15,0 C 13,9 C 86 % 0 lf 1009,1 hPa 0,0 l/m 0 min 0 min 0 W/m 12,6 km/h (3 Bft) 95,74 %
11.07.2017 05:06 15,4 C 15,0 C 13,9 C 86 % 0 lf 1009,1 hPa 0,0 l/m 0 min 0 min 0 W/m 10,5 km/h (2 Bft) 95,74 %
11.07.2017 05:08 15,4 C 14,4 C 13,3 C 86 % 0 lf 1009,1 hPa 0,0 l/m 0 min 0 min 0 W/m 10,5 km/h (2 Bft) 97,87 %
11.07.2017 05:10 15,4 C 15,0 C 13,3 C 86 % 0 lf 1009,1 hPa 0,0 l/m 0 min 0 min 0 W/m 10,5 km/h (2 Bft) 95,65 %
11.07.2017 05:12 15,4 C 14,4 C 13,3 C 86 % 0 lf 1009,1 hPa 0,0 l/m 0 min 0 min 0 W/m 8,4 km/h (2 Bft) 95,74 %
11.07.2017 05:14 15,4 C 15,0 C 13,3 C 86 % 0 lf 1009,1 hPa 0,0 l/m 0 min 0 min 0 W/m 12,6 km/h (3 Bft) 95,74 %
11.07.2017 05:16 15,3 C 14,4 C 13,3 C 86 % 0 lf 1009,1 hPa 0,0 l/m 0 min 0 min 0 W/m 10,5 km/h (2 Bft) 97,87 %
11.07.2017 05:18 15,3 C 15,0 C 13,3 C 86 % 0 lf 1009,1 hPa 0,0 l/m 0 min 0 min 0 W/m 14,6 km/h (3 Bft) 97,87 %
11.07.2017 05:20 15,3 C 15,0 C 13,3 C 86 % 0 lf 1009,1 hPa 0,0 l/m 0 min 0 min 0 W/m 12,6 km/h (3 Bft) 97,87 %
11.07.2017 05:22 15,3 C 15,0 C 13,9 C 86 % 0 lf 1009,1 hPa 0,0 l/m 0 min 0 min 0 W/m 12,6 km/h (3 Bft) 95,65 %
11.07.2017 05:24 15,3 C 15,0 C 13,3 C 86 % 0 lf 1009,1 hPa 0,0 l/m 0 min 0 min 0 W/m 10,5 km/h (2 Bft) 97,87 %
11.07.2017 05:26 15,3 C 15,0 C 13,3 C 86 % 0 lf 1009,1 hPa 0,0 l/m 0 min 0 min 0 W/m 10,5 km/h (2 Bft) 97,87 %
11.07.2017 05:28 15,3 C 14,4 C 13,3 C 86 % 0 lf 1009,1 hPa 0,0 l/m 0 min 0 min 0 W/m 8,4 km/h (2 Bft) 95,74 %
11.07.2017 05:30 15,3 C 14,4 C 13,3 C 86 % 0 lf 1009,1 hPa 0,0 l/m 0 min 0 min 3 W/m 10,5 km/h (2 Bft) 95,74 %
11.07.2017 05:32 15,3 C 14,4 C 13,3 C 86 % 0 lf 1009,1 hPa 0,0 l/m 0 min 0 min 5 W/m 12,6 km/h (3 Bft) 97,87 %
11.07.2017 05:34 15,2 C 14,4 C 13,3 C 86 % 0 lf 1009,2 hPa 0,0 l/m 0 min 0 min 5 W/m 12,6 km/h (3 Bft) 95,65 %
11.07.2017 05:36 15,2 C 14,4 C 13,3 C 86 % 0 lf 1009,2 hPa 0,0 l/m 0 min 0 min 6 W/m 12,6 km/h (3 Bft) 97,87 %
11.07.2017 05:38 15,2 C 14,4 C 13,3 C 87 % 0 lf 1009,2 hPa 0,0 l/m 0 min 0 min 7 W/m 8,4 km/h (2 Bft) 93,62 %
11.07.2017 05:40 15,2 C 14,4 C 13,3 C 87 % 0 lf 1009,2 hPa 0,0 l/m 0 min 0 min 8 W/m 14,6 km/h (3 Bft) 95,74 %
11.07.2017 05:42 15,2 C 14,4 C 13,3 C 87 % 0 lf 1009,2 hPa 0,0 l/m 0 min 0 min 9 W/m 12,6 km/h (3 Bft) 97,87 %
11.07.2017 05:44 15,2 C 14,4 C 13,3 C 87 % 0 lf 1009,2 hPa 0,0 l/m 0 min 0 min 10 W/m 12,6 km/h (3 Bft) 100,00 %
11.07.2017 05:46 15,2 C 14,4 C 13,3 C 87 % 0 lf 1009,2 hPa 0,0 l/m 0 min 0 min 12 W/m 14,6 km/h (3 Bft) 97,83 %
11.07.2017 05:48 15,2 C 15,0 C 13,3 C 87 % 0 lf 1009,2 hPa 0,0 l/m 0 min 0 min 12 W/m 14,6 km/h (3 Bft) 97,87 %
11.07.2017 05:50 15,2 C 15,0 C 13,3 C 87 % 0 lf 1009,2 hPa 0,0 l/m 0 min 0 min 13 W/m 12,6 km/h (3 Bft) 93,62 %
11.07.2017 05:52 15,2 C 15,0 C 13,3 C 87 % 0 lf 1009,1 hPa 0,0 l/m 0 min 0 min 15 W/m 10,5 km/h (2 Bft) 97,87 %
11.07.2017 05:54 15,2 C 15,0 C 13,3 C 87 % 0 lf 1009,1 hPa 0,0 l/m 0 min 0 min 19 W/m 8,4 km/h (2 Bft) 95,74 %
11.07.2017 05:56 15,2 C 15,0 C 13,3 C 87 % 0 lf 1009,2 hPa 0,0 l/m 2 min 0 min 21 W/m 8,4 km/h (2 Bft) 95,74 %
11.07.2017 05:58 15,1 C 15,0 C 13,9 C 87 % 0 lf 1009,2 hPa 0,0 l/m 2 min 0 min 22 W/m 16,7 km/h (3 Bft) 93,48 %
11.07.2017 06:00 15,2 C 15,0 C 13,9 C 87 % 0 lf 1009,2 hPa 0,0 l/m 0 min 0 min 19 W/m 10,5 km/h (2 Bft) 93,62 %
11.07.2017 06:02 15,2 C 15,0 C 13,9 C 87 % 0 lf 1009,2 hPa 0,0 l/m 0 min 0 min 21 W/m 10,5 km/h (2 Bft) 95,74 %
11.07.2017 06:04 15,2 C 15,0 C 14,4 C 87 % 0 lf 1009,3 hPa 0,0 l/m 0 min 0 min 21 W/m 10,5 km/h (2 Bft) 95,74 %
11.07.2017 06:06 15,2 C 15,6 C 14,4 C 87 % 0 lf 1009,3 hPa 0,0 l/m 0 min 0 min 20 W/m 10,5 km/h (2 Bft) 95,74 %
11.07.2017 06:10 15,2 C 15,6 C 14,4 C 88 % 0 lf 1009,3 hPa 0,0 l/m 0 min 0 min 21 W/m 12,6 km/h (3 Bft) 92,00 %
11.07.2017 06:12 15,2 C 15,6 C 15,0 C 88 % 0 lf 1009,4 hPa 0,0 l/m 0 min 0 min 23 W/m 10,5 km/h (2 Bft) 95,74 %
11.07.2017 06:14 15,2 C 15,6 C 15,0 C 88 % 0 lf 1009,5 hPa 0,0 l/m 0 min 0 min 24 W/m 14,6 km/h (3 Bft) 93,48 %
11.07.2017 06:16 15,3 C 15,6 C 15,0 C 88 % 0 lf 1009,5 hPa 0,0 l/m 0 min 0 min 26 W/m 8,4 km/h (2 Bft) 91,49 %
11.07.2017 06:18 15,3 C 15,6 C 15,0 C 88 % 0 lf 1009,5 hPa 0,0 l/m 0 min 0 min 27 W/m 14,6 km/h (3 Bft) 93,62 %
11.07.2017 06:20 15,3 C 15,6 C 15,0 C 88 % 0 lf 1009,5 hPa 0,0 l/m 0 min 0 min 29 W/m 12,6 km/h (3 Bft) 93,62 %
11.07.2017 06:22 15,4 C 16,1 C 15,0 C 88 % 0 lf 1009,6 hPa 0,0 l/m 0 min 0 min 30 W/m 10,5 km/h (2 Bft) 93,62 %
11.07.2017 06:24 15,4 C 16,1 C 15,0 C 88 % 0 lf 1009,5 hPa 0,0 l/m 0 min 0 min 31 W/m 20,9 km/h (4 Bft) 93,62 %
11.07.2017 06:26 15,4 C 16,1 C 15,0 C 88 % 0 lf 1009,6 hPa 0,0 l/m 0 min 0 min 34 W/m 14,6 km/h (3 Bft) 93,48 %
11.07.2017 06:28 15,5 C 16,1 C 15,0 C 88 % 0 lf 1009,5 hPa 0,0 l/m 0 min 0 min 33 W/m 29,3 km/h (5 Bft) 95,74 %
11.07.2017 06:30 15,6 C 16,1 C 15,6 C 88 % 0 lf 1009,7 hPa 0,0 l/m 0 min 0 min 33 W/m 23,0 km/h (4 Bft) 87,23 %
11.07.2017 06:32 15,6 C 16,1 C 15,6 C 88 % 0 lf 1009,6 hPa 0,0 l/m 0 min 0 min 33 W/m 25,1 km/h (4 Bft) 93,62 %
11.07.2017 06:34 15,7 C 16,1 C 15,6 C 88 % 0 lf 1009,7 hPa 0,0 l/m 0 min 0 min 37 W/m 14,6 km/h (3 Bft) 93,62 %
11.07.2017 06:36 15,7 C 16,1 C 15,6 C 88 % 0 lf 1009,7 hPa 0,0 l/m 0 min 0 min 39 W/m 18,8 km/h (3 Bft) 93,48 %
11.07.2017 06:38 15,7 C 16,1 C 15,6 C 88 % 0 lf 1009,7 hPa 0,0 l/m 0 min 0 min 37 W/m 20,9 km/h (4 Bft) 95,74 %
11.07.2017 06:40 15,8 C 16,1 C 15,6 C 88 % 0 lf 1009,7 hPa 0,0 l/m 0 min 0 min 37 W/m 18,8 km/h (3 Bft) 95,74 %
11.07.2017 06:42 15,8 C 16,1 C 15,6 C 88 % 0 lf 1009,6 hPa 0,0 l/m 0 min 0 min 38 W/m 14,6 km/h (3 Bft) 91,49 %
11.07.2017 06:44 15,8 C 16,1 C 15,6 C 87 % 0 lf 1009,7 hPa 0,0 l/m 0 min 0 min 39 W/m 10,5 km/h (2 Bft) 95,74 %
11.07.2017 06:46 15,8 C 16,1 C 15,6 C 87 % 0 lf 1009,7 hPa 0,0 l/m 0 min 0 min 37 W/m 20,9 km/h (4 Bft) 93,62 %
11.07.2017 06:48 15,9 C 16,1 C 15,6 C 87 % 0 lf 1009,6 hPa 0,0 l/m 0 min 0 min 35 W/m 14,6 km/h (3 Bft) 95,65 %
11.07.2017 06:50 15,9 C 16,1 C 15,6 C 87 % 0 lf 1009,7 hPa 0,0 l/m 0 min 0 min 35 W/m 16,7 km/h (3 Bft) 97,87 %
11.07.2017 06:52 15,9 C 16,1 C 15,6 C 88 % 0 lf 1009,6 hPa 0,0 l/m 0 min 0 min 35 W/m 18,8 km/h (3 Bft) 95,74 %
11.07.2017 06:54 15,9 C 16,1 C 15,6 C 87 % 0 lf 1009,6 hPa 0,0 l/m 0 min 0 min 31 W/m 16,7 km/h (3 Bft) 95,74 %
11.07.2017 06:56 15,9 C 16,1 C 15,6 C 87 % 0 lf 1009,6 hPa 0,0 l/m 0 min 0 min 27 W/m 18,8 km/h (3 Bft) 97,87 %
11.07.2017 06:58 16,0 C 16,1 C 15,6 C 87 % 0 lf 1009,6 hPa 0,0 l/m 0 min 0 min 31 W/m 20,9 km/h (4 Bft) 95,74 %
11.07.2017 07:00 16,0 C 16,1 C 15,6 C 87 % 0 lf 1009,6 hPa 0,0 l/m 0 min 0 min 28 W/m 18,8 km/h (3 Bft) 95,65 %
11.07.2017 07:02 16,0 C 16,1 C 15,6 C 87 % 0 lf 1009,7 hPa 0,0 l/m 0 min 0 min 30 W/m 14,6 km/h (3 Bft) 95,74 %
11.07.2017 07:04 16,0 C 16,1 C 15,6 C 87 % 0 lf 1009,6 hPa 0,0 l/m 0 min 0 min 33 W/m 14,6 km/h (3 Bft) 100,00 %
11.07.2017 07:06 16,0 C 16,1 C 15,6 C 87 % 0 lf 1009,6 hPa 0,0 l/m 0 min 0 min 30 W/m 23,0 km/h (4 Bft) 100,00 %
11.07.2017 07:08 16,1 C 16,1 C 15,6 C 87 % 0 lf 1009,7 hPa 0,0 l/m 0 min 0 min 24 W/m 14,6 km/h (3 Bft) 100,00 %
11.07.2017 07:10 16,1 C 16,1 C 15,6 C 87 % 0 lf 1009,7 hPa 0,0 l/m 0 min 0 min 15 W/m 23,0 km/h (4 Bft) 100,00 %
11.07.2017 07:12 16,1 C 16,1 C 15,6 C 87 % 0 lf 1009,7 hPa 0,0 l/m 0 min 0 min 12 W/m 31,4 km/h (5 Bft) 97,83 %
11.07.2017 07:14 16,1 C 16,1 C 15,0 C 87 % 0 lf 1009,7 hPa 0,0 l/m 0 min 0 min 12 W/m 27,2 km/h (4 Bft) 100,00 %
11.07.2017 07:16 16,1 C 16,1 C 15,0 C 87 % 0 lf 1009,7 hPa 0,0 l/m 0 min 0 min 14 W/m 18,8 km/h (3 Bft) 100,00 %
11.07.2017 07:18 16,1 C 16,1 C 15,0 C 87 % 0 lf 1009,8 hPa 0,0 l/m 0 min 0 min 21 W/m 20,9 km/h (4 Bft) 97,87 %
11.07.2017 07:20 16,0 C 16,1 C 15,6 C 87 % 0 lf 1009,8 hPa 0,0 l/m 0 min 0 min 32 W/m 16,7 km/h (3 Bft) 97,87 %
11.07.2017 07:22 16,1 C 16,1 C 15,6 C 87 % 0 lf 1009,8 hPa 0,0 l/m 0 min 0 min 35 W/m 16,7 km/h (3 Bft) 97,87 %
11.07.2017 07:24 16,1 C 16,1 C 15,6 C 87 % 0 lf 1009,8 hPa 0,0 l/m 0 min 0 min 37 W/m 16,7 km/h (3 Bft) 97,83 %
11.07.2017 07:26 16,1 C 16,1 C 15,6 C 87 % 0 lf 1009,8 hPa 0,0 l/m 0 min 0 min 41 W/m 16,7 km/h (3 Bft) 100,00 %
11.07.2017 07:28 16,1 C 16,1 C 15,6 C 87 % 0 lf 1009,7 hPa 0,0 l/m 0 min 0 min 46 W/m 16,7 km/h (3 Bft) 97,87 %
11.07.2017 07:30 16,1 C 16,1 C 15,6 C 87 % 0 lf 1009,8 hPa 0,0 l/m 0 min 0 min 43 W/m 25,1 km/h (4 Bft) 100,00 %
11.07.2017 07:32 16,1 C 16,1 C 15,6 C 88 % 0 lf 1009,8 hPa 0,0 l/m 0 min 0 min 40 W/m 18,8 km/h (3 Bft) 100,00 %
11.07.2017 07:34 16,1 C 16,1 C 15,6 C 88 % 0 lf 1009,8 hPa 0,0 l/m 0 min 0 min 38 W/m 16,7 km/h (3 Bft) 100,00 %
11.07.2017 07:36 16,1 C 16,1 C 15,6 C 88 % 0 lf 1009,9 hPa 0,0 l/m 0 min 0 min 32 W/m 23,0 km/h (4 Bft) 100,00 %
11.07.2017 07:38 16,1 C 16,1 C 15,6 C 88 % 0 lf 1009,9 hPa 0,0 l/m 0 min 0 min 33 W/m 23,0 km/h (4 Bft) 97,87 %
11.07.2017 07:40 16,1 C 16,1 C 15,6 C 88 % 0 lf 1009,9 hPa 0,0 l/m 0 min 0 min 39 W/m 16,7 km/h (3 Bft) 95,74 %
11.07.2017 07:42 16,1 C 16,1 C 15,6 C 88 % 0 lf 1009,9 hPa 0,0 l/m 0 min 0 min 42 W/m 18,8 km/h (3 Bft) 95,74 %
11.07.2017 07:44 16,1 C 16,1 C 15,6 C 88 % 0 lf 1009,9 hPa 0,0 l/m 0 min 0 min 44 W/m 16,7 km/h (3 Bft) 100,00 %
11.07.2017 07:46 16,2 C 16,1 C 15,6 C 88 % 0 lf 1010,0 hPa 0,0 l/m 0 min 0 min 45 W/m 23,0 km/h (4 Bft) 100,00 %
11.07.2017 07:48 16,2 C 16,1 C 15,6 C 88 % 0 lf 1010,0 hPa 0,0 l/m 0 min 0 min 45 W/m 20,9 km/h (4 Bft) 100,00 %
11.07.2017 07:50 16,2 C 16,7 C 15,6 C 87 % 0 lf 1010,0 hPa 0,0 l/m 0 min 0 min 53 W/m 27,2 km/h (4 Bft) 97,87 %
11.07.2017 07:52 16,2 C 16,7 C 16,1 C 87 % 0 lf 1010,0 hPa 0,0 l/m 0 min 0 min 55 W/m 23,0 km/h (4 Bft) 97,87 %
11.07.2017 07:54 16,2 C 16,7 C 16,1 C 87 % 0 lf 1010,1 hPa 0,0 l/m 0 min 0 min 61 W/m 20,9 km/h (4 Bft) 100,00 %
11.07.2017 07:56 16,2 C 16,7 C 16,1 C 87 % 0 lf 1010,0 hPa 0,0 l/m 0 min 0 min 68 W/m 12,6 km/h (3 Bft) 100,00 %
11.07.2017 07:58 16,2 C 16,7 C 16,1 C 87 % 0 lf 1010,0 hPa 0,0 l/m 0 min 0 min 71 W/m 35,6 km/h (5 Bft) 100,00 %
11.07.2017 08:00 16,3 C 16,7 C 16,1 C 87 % 0 lf 1010,1 hPa 0,0 l/m 0 min 0 min 74 W/m 25,1 km/h (4 Bft) 100,00 %
11.07.2017 08:02 16,3 C 16,7 C 16,1 C 87 % 0 lf 1010,1 hPa 0,0 l/m 0 min 0 min 73 W/m 27,2 km/h (4 Bft) 97,87 %
11.07.2017 08:04 16,3 C 16,7 C 16,1 C 87 % 0 lf 1010,1 hPa 0,0 l/m 0 min 0 min 71 W/m 20,9 km/h (4 Bft) 97,87 %
11.07.2017 08:06 16,3 C 16,7 C 16,1 C 87 % 0 lf 1010,1 hPa 0,0 l/m 0 min 0 min 61 W/m 23,0 km/h (4 Bft) 100,00 %
11.07.2017 08:08 16,3 C 16,7 C 16,1 C 87 % 0 lf 1010,1 hPa 0,0 l/m 0 min 0 min 51 W/m 20,9 km/h (4 Bft) 97,87 %
11.07.2017 08:10 16,3 C 16,7 C 16,1 C 87 % 0 lf 1010,1 hPa 0,0 l/m 0 min 0 min 61 W/m 18,8 km/h (3 Bft) 95,65 %
11.07.2017 08:12 16,3 C 16,7 C 16,1 C 87 % 0 lf 1010,1 hPa 0,0 l/m 0 min 0 min 61 W/m 27,2 km/h (4 Bft) 100,00 %
11.07.2017 08:14 16,3 C 16,7 C 16,1 C 87 % 0 lf 1010,2 hPa 0,0 l/m 0 min 0 min 76 W/m 33,5 km/h (5 Bft) 100,00 %
11.07.2017 08:16 16,4 C 16,7 C 16,1 C 87 % 0 lf 1010,1 hPa 0,0 l/m 0 min 0 min 78 W/m 29,3 km/h (5 Bft) 97,87 %
11.07.2017 08:18 16,4 C 16,7 C 16,1 C 87 % 0 lf 1010,1 hPa 0,0 l/m 0 min 0 min 59 W/m 25,1 km/h (4 Bft) 93,62 %
11.07.2017 08:20 16,4 C 16,7 C 16,1 C 87 % 0 lf 1010,2 hPa 0,0 l/m 0 min 0 min 70 W/m 25,1 km/h (4 Bft) 95,74 %
11.07.2017 08:22 16,4 C 16,7 C 16,7 C 87 % 0 lf 1010,2 hPa 0,0 l/m 0 min 0 min 94 W/m 23,0 km/h (4 Bft) 95,65 %
11.07.2017 08:24 16,4 C 17,2 C 16,7 C 87 % 0 lf 1010,2 hPa 0,0 l/m 0 min 0 min 112 W/m 18,8 km/h (3 Bft) 97,87 %
11.07.2017 08:26 16,4 C 17,2 C 16,7 C 87 % 0 lf 1010,2 hPa 0,0 l/m 0 min 0 min 114 W/m 27,2 km/h (4 Bft) 95,74 %
11.07.2017 08:28 16,5 C 17,2 C 16,7 C 87 % 0 lf 1010,2 hPa 0,0 l/m 0 min 0 min 116 W/m 23,0 km/h (4 Bft) 95,74 %
11.07.2017 08:30 16,5 C 17,2 C 16,7 C 86 % 0 lf 1010,2 hPa 0,0 l/m 0 min 0 min 120 W/m 27,2 km/h (4 Bft) 95,74 %
11.07.2017 08:32 16,5 C 17,2 C 17,2 C 86 % 0 lf 1010,2 hPa 0,0 l/m 0 min 0 min 110 W/m 20,9 km/h (4 Bft) 95,83 %
11.07.2017 08:34 16,6 C 17,2 C 16,7 C 86 % 0 lf 1010,2 hPa 0,0 l/m 0 min 0 min 101 W/m 20,9 km/h (4 Bft) 91,30 %
11.07.2017 08:36 16,6 C 17,2 C 16,7 C 86 % 0 lf 1010,3 hPa 0,0 l/m 0 min 0 min 105 W/m 23,0 km/h (4 Bft) 94,74 %
11.07.2017 08:38 16,6 C 17,2 C 16,7 C 86 % 0 lf 1010,3 hPa 0,0 l/m 0 min 0 min 100 W/m 31,4 km/h (5 Bft) 95,74 %
11.07.2017 08:40 16,6 C 17,2 C 16,7 C 86 % 0 lf 1010,3 hPa 0,0 l/m 0 min 0 min 104 W/m 23,0 km/h (4 Bft) 95,74 %
11.07.2017 08:42 16,6 C 17,2 C 17,2 C 86 % 0 lf 1010,3 hPa 0,0 l/m 0 min 0 min 120 W/m 10,5 km/h (2 Bft) 95,74 %
11.07.2017 08:44 16,7 C 17,2 C 17,2 C 86 % 0 lf 1010,3 hPa 0,0 l/m 0 min 0 min 126 W/m 25,1 km/h (4 Bft) 91,49 %
11.07.2017 08:46 16,7 C 17,8 C 17,2 C 86 % 0 lf 1010,4 hPa 0,0 l/m 0 min 0 min 133 W/m 25,1 km/h (4 Bft) 80,85 %
11.07.2017 08:48 16,7 C 17,8 C 17,2 C 86 % 0 lf 1010,4 hPa 0,0 l/m 0 min 0 min 135 W/m 25,1 km/h (4 Bft) 91,30 %
11.07.2017 08:50 16,8 C 17,8 C 17,2 C 86 % 0 lf 1010,4 hPa 0,0 l/m 0 min 0 min 132 W/m 20,9 km/h (4 Bft) 89,36 %
11.07.2017 08:52 16,8 C 17,8 C 17,8 C 86 % 0 lf 1010,4 hPa 0,0 l/m 0 min 0 min 124 W/m 16,7 km/h (3 Bft) 85,96 %
11.07.2017 08:54 16,8 C 17,8 C 17,2 C 85 % 0 lf 1010,5 hPa 0,0 l/m 0 min 0 min 130 W/m 27,2 km/h (4 Bft) 91,49 %
11.07.2017 08:56 16,9 C 17,8 C 17,8 C 85 % 0 lf 1010,5 hPa 0,0 l/m 0 min 0 min 140 W/m 25,1 km/h (4 Bft) 91,49 %
11.07.2017 08:58 16,9 C 17,8 C 17,8 C 85 % 0 lf 1010,5 hPa 0,0 l/m 0 min 0 min 155 W/m 27,2 km/h (4 Bft) 91,30 %
11.07.2017 09:00 16,9 C 17,8 C 17,8 C 85 % 0 lf 1010,5 hPa 0,0 l/m 0 min 0 min 165 W/m 31,4 km/h (5 Bft) 89,36 %
11.07.2017 09:02 17,0 C 18,3 C 17,8 C 85 % 0 lf 1010,5 hPa 0,0 l/m 0 min 0 min 192 W/m 29,3 km/h (5 Bft) 89,36 %
11.07.2017 09:04 17,1 C 18,3 C 18,3 C 85 % 0 lf 1010,4 hPa 0,0 l/m 0 min 0 min 215 W/m 20,9 km/h (4 Bft) 95,74 %
11.07.2017 09:06 17,1 C 18,3 C 18,3 C 85 % 0 lf 1010,4 hPa 0,0 l/m 0 min 0 min 183 W/m 25,1 km/h (4 Bft) 92,11 %
11.07.2017 09:08 17,1 C 18,3 C 17,8 C 84 % 0 lf 1010,5 hPa 0,0 l/m 0 min 0 min 173 W/m 29,3 km/h (5 Bft) 93,62 %
11.07.2017 09:10 17,2 C 18,3 C 17,8 C 84 % 0 lf 1010,6 hPa 0,0 l/m 0 min 0 min 137 W/m 31,4 km/h (5 Bft) 93,62 %
11.07.2017 09:12 17,2 C 18,3 C 18,3 C 84 % 0 lf 1010,6 hPa 0,0 l/m 0 min 0 min 148 W/m 23,0 km/h (4 Bft) 91,30 %
11.07.2017 09:14 17,2 C 18,3 C 18,3 C 84 % 0 lf 1010,6 hPa 0,0 l/m 0 min 0 min 163 W/m 14,6 km/h (3 Bft) 91,49 %
11.07.2017 09:16 17,2 C 18,3 C 18,3 C 84 % 0 lf 1010,7 hPa 0,0 l/m 0 min 0 min 151 W/m 25,1 km/h (4 Bft) 93,62 %
11.07.2017 09:18 17,3 C 18,3 C 18,3 C 84 % 0 lf 1010,6 hPa 0,0 l/m 0 min 0 min 151 W/m 25,1 km/h (4 Bft) 95,74 %
11.07.2017 09:20 17,3 C 18,3 C 18,3 C 84 % 0 lf 1010,7 hPa 0,0 l/m 0 min 0 min 149 W/m 29,3 km/h (5 Bft) 93,62 %
11.07.2017 09:22 17,3 C 18,3 C 18,3 C 84 % 0 lf 1010,7 hPa 0,0 l/m 0 min 0 min 169 W/m 23,0 km/h (4 Bft) 89,36 %
11.07.2017 09:24 17,4 C 18,9 C 18,9 C 84 % 0 lf 1010,7 hPa 0,0 l/m 0 min 0 min 224 W/m 18,8 km/h (3 Bft) 93,48 %
11.07.2017 09:26 17,4 C 18,9 C 18,9 C 84 % 0 lf 1010,7 hPa 0,0 l/m 0 min 0 min 247 W/m 27,2 km/h (4 Bft) 95,74 %
11.07.2017 09:28 17,4 C 19,4 C 18,9 C 84 % 0 lf 1010,7 hPa 0,0 l/m 0 min 0 min 238 W/m 25,1 km/h (4 Bft) 95,74 %
11.07.2017 09:30 17,5 C 19,4 C 19,4 C 83 % 0 lf 1010,7 hPa 0,0 l/m 2 min 0 min 290 W/m 23,0 km/h (4 Bft) 97,87 %
11.07.2017 09:32 17,6 C 19,4 C 19,4 C 83 % 0 lf 1010,7 hPa 0,0 l/m 0 min 0 min 245 W/m 29,3 km/h (5 Bft) 95,74 %
11.07.2017 09:34 17,6 C 19,4 C 18,9 C 83 % 0 lf 1010,8 hPa 0,0 l/m 0 min 0 min 251 W/m 27,2 km/h (4 Bft) 95,65 %
11.07.2017 09:36 17,7 C 18,9 C 18,9 C 83 % 0 lf 1010,8 hPa 0,0 l/m 0 min 0 min 210 W/m 23,0 km/h (4 Bft) 94,74 %
11.07.2017 09:38 17,7 C 18,9 C 18,9 C 83 % 0 lf 1010,9 hPa 0,0 l/m 0 min 0 min 186 W/m 16,7 km/h (3 Bft) 97,87 %
11.07.2017 09:40 17,7 C 18,9 C 18,9 C 83 % 0 lf 1010,8 hPa 0,0 l/m 0 min 0 min 183 W/m 25,1 km/h (4 Bft) 100,00 %
11.07.2017 09:42 17,7 C 18,9 C 18,9 C 83 % 0 lf 1010,9 hPa 0,0 l/m 0 min 0 min 178 W/m 25,1 km/h (4 Bft) 97,87 %
11.07.2017 09:44 17,8 C 18,9 C 19,4 C 83 % 0 lf 1010,9 hPa 0,0 l/m 0 min 0 min 226 W/m 27,2 km/h (4 Bft) 97,83 %
11.07.2017 09:46 17,8 C 19,4 C 19,4 C 83 % 0 lf 1010,9 hPa 0,0 l/m 0 min 0 min 234 W/m 27,2 km/h (4 Bft) 97,87 %
11.07.2017 09:48 17,8 C 19,4 C 19,4 C 82 % 0 lf 1011,0 hPa 0,0 l/m 0 min 0 min 282 W/m 33,5 km/h (5 Bft) 100,00 %
11.07.2017 09:50 17,9 C 19,4 C 19,4 C 82 % 0 lf 1010,9 hPa 0,0 l/m 0 min 0 min 268 W/m 20,9 km/h (4 Bft) 100,00 %
11.07.2017 09:52 17,9 C 20,0 C 20,0 C 82 % 0 lf 1011,0 hPa 0,0 l/m 0 min 0 min 237 W/m 29,3 km/h (5 Bft) 95,74 %
11.07.2017 09:54 18,0 C 19,4 C 20,0 C 82 % 0 lf 1011,0 hPa 0,0 l/m 0 min 0 min 242 W/m 23,0 km/h (4 Bft) 97,87 %
11.07.2017 09:56 18,1 C 19,4 C 19,4 C 82 % 0 lf 1011,0 hPa 0,0 l/m 0 min 0 min 242 W/m 27,2 km/h (4 Bft) 100,00 %
11.07.2017 09:58 18,1 C 20,0 C 20,0 C 82 % 0 lf 1011,0 hPa 0,0 l/m 0 min 0 min 268 W/m 29,3 km/h (5 Bft) 97,87 %
11.07.2017 10:00 18,1 C 20,0 C 20,0 C 81 % 0 lf 1011,0 hPa 0,0 l/m 2 min 0 min 302 W/m 27,2 km/h (4 Bft) 97,87 %
11.07.2017 10:02 18,2 C 20,6 C 20,6 C 81 % 0 lf 1011,0 hPa 0,0 l/m 2 min 0 min 311 W/m 29,3 km/h (5 Bft) 97,87 %
11.07.2017 10:04 18,2 C 21,1 C 20,6 C 81 % 0 lf 1011,0 hPa 0,0 l/m 2 min 0 min 343 W/m 29,3 km/h (5 Bft) 97,87 %
11.07.2017 10:06 18,3 C 21,1 C 20,6 C 81 % 0 lf 1011,0 hPa 0,0 l/m 2 min 0 min 325 W/m 25,1 km/h (4 Bft) 100,00 %
11.07.2017 10:08 18,3 C 21,1 C 20,6 C 80 % 0 lf 1011,0 hPa 0,0 l/m 0 min 0 min 278 W/m 29,3 km/h (5 Bft) 100,00 %
11.07.2017 10:10 18,4 C 21,1 C 20,6 C 80 % 0 lf 1011,0 hPa 0,0 l/m 0 min 0 min 286 W/m 27,2 km/h (4 Bft) 100,00 %
11.07.2017 10:12 18,4 C 21,7 C 21,1 C 80 % 0 lf 1011,0 hPa 0,0 l/m 0 min 0 min 294 W/m 23,0 km/h (4 Bft) 97,87 %
11.07.2017 10:14 18,6 C 22,2 C 21,7 C 80 % 0 lf 1011,0 hPa 0,0 l/m 2 min 0 min 361 W/m 20,9 km/h (4 Bft) 97,87 %
11.07.2017 10:16 18,6 C 21,1 C 21,1 C 80 % 0 lf 1011,0 hPa 0,0 l/m 0 min 0 min 315 W/m 25,1 km/h (4 Bft) 100,00 %
11.07.2017 10:18 18,7 C 21,7 C 21,1 C 80 % 0 lf 1011,1 hPa 0,0 l/m 2 min 0 min 319 W/m 25,1 km/h (4 Bft) 100,00 %
11.07.2017 10:20 18,8 C 23,9 C 22,8 C 80 % 0 lf 1011,0 hPa 0,0 l/m 2 min 0 min 369 W/m 16,7 km/h (3 Bft) 100,00 %
11.07.2017 10:22 18,9 C 23,9 C 23,3 C 80 % 0 lf 1011,0 hPa 0,0 l/m 2 min 0 min 369 W/m 23,0 km/h (4 Bft) 100,00 %
11.07.2017 10:24 19,1 C 23,9 C 22,8 C 79 % 0 lf 1011,0 hPa 0,0 l/m 2 min 0 min 377 W/m 27,2 km/h (4 Bft) 97,87 %
11.07.2017 10:26 19,2 C 24,4 C 23,3 C 78 % 0 lf 1011,1 hPa 0,0 l/m 2 min 0 min 563 W/m 31,4 km/h (5 Bft) 95,74 %
11.07.2017 10:28 19,2 C 23,3 C 22,8 C 78 % 0 lf 1011,1 hPa 0,0 l/m 2 min 0 min 713 W/m 31,4 km/h (5 Bft) 95,74 %
11.07.2017 10:30 19,2 C 23,9 C 23,3 C 78 % 0 lf 1011,1 hPa 0,0 l/m 2 min 0 min 422 W/m 23,0 km/h (4 Bft) 100,00 %
11.07.2017 10:32 19,3 C 25,0 C 23,9 C 78 % 0 lf 1011,0 hPa 0,0 l/m 2 min 0 min 450 W/m 25,1 km/h (4 Bft) 97,87 %
11.07.2017 10:34 19,4 C 25,6 C 24,4 C 78 % 0 lf 1011,1 hPa 0,0 l/m 2 min 0 min 670 W/m 29,3 km/h (5 Bft) 100,00 %
11.07.2017 10:36 19,6 C 26,1 C 25,0 C 77 % 0 lf 1011,0 hPa 0,0 l/m 2 min 0 min 655 W/m 31,4 km/h (5 Bft) 97,37 %
11.07.2017 10:38 19,7 C 26,1 C 25,0 C 77 % 0 lf 1011,1 hPa 0,0 l/m 2 min 0 min 669 W/m 37,7 km/h (5 Bft) 95,65 %
11.07.2017 10:40 19,8 C 26,7 C 25,0 C 76 % 0 lf 1011,0 hPa 0,0 l/m 2 min 0 min 702 W/m 29,3 km/h (5 Bft) 97,87 %
11.07.2017 10:42 19,8 C 26,1 C 25,6 C 76 % 0 lf 1011,1 hPa 0,0 l/m 2 min 0 min 708 W/m 35,6 km/h (5 Bft) 95,74 %
11.07.2017 10:44 19,9 C 27,2 C 26,1 C 75 % 0 lf 1011,1 hPa 0,0 l/m 2 min 0 min 744 W/m 27,2 km/h (4 Bft) 97,87 %
11.07.2017 10:46 20,1 C 27,2 C 26,7 C 76 % 0 lf 1011,1 hPa 0,0 l/m 2 min 0 min 770 W/m 18,8 km/h (3 Bft) 97,87 %
11.07.2017 10:48 20,2 C 27,8 C 26,1 C 75 % 0 lf 1011,1 hPa 0,0 l/m 2 min 0 min 708 W/m 27,2 km/h (4 Bft) 97,87 %
11.07.2017 10:50 20,3 C 28,3 C 26,7 C 75 % 0 lf 1011,1 hPa 0,0 l/m 2 min 0 min 751 W/m 27,2 km/h (4 Bft) 97,83 %
11.07.2017 10:52 20,4 C 26,1 C 26,7 C 74 % 0 lf 1011,0 hPa 0,0 l/m 2 min 0 min 734 W/m 25,1 km/h (4 Bft) 97,87 %
11.07.2017 10:54 20,4 C 27,2 C 26,1 C 74 % 0 lf 1011,0 hPa 0,0 l/m 2 min 0 min 653 W/m 25,1 km/h (4 Bft) 97,87 %
11.07.2017 10:56 20,6 C 27,8 C 26,7 C 75 % 0 lf 1011,1 hPa 0,0 l/m 2 min 0 min 670 W/m 18,8 km/h (3 Bft) 95,74 %
11.07.2017 10:58 20,7 C 28,3 C 26,7 C 75 % 0 lf 1011,1 hPa 0,0 l/m 2 min 0 min 685 W/m 20,9 km/h (4 Bft) 97,87 %
11.07.2017 11:00 20,8 C 27,2 C 26,1 C 74 % 0 lf 1011,0 hPa 0,0 l/m 2 min 0 min 629 W/m 18,8 km/h (3 Bft) 97,87 %
11.07.2017 11:02 20,9 C 27,8 C 26,7 C 73 % 0 lf 1011,0 hPa 0,0 l/m 2 min 0 min 694 W/m 12,6 km/h (3 Bft) 91,30 %
11.07.2017 11:04 21,0 C 28,9 C 27,2 C 74 % 0 lf 1011,0 hPa 0,0 l/m 2 min 0 min 754 W/m 20,9 km/h (4 Bft) 100,00 %
11.07.2017 11:06 21,1 C 28,3 C 27,8 C 73 % 0 lf 1011,0 hPa 0,0 l/m 2 min 0 min 790 W/m 18,8 km/h (3 Bft) 97,87 %
11.07.2017 11:08 21,2 C 28,9 C 27,8 C 72 % 0 lf 1011,0 hPa 0,0 l/m 2 min 0 min 817 W/m 29,3 km/h (5 Bft) 97,87 %
11.07.2017 11:10 21,3 C 30,0 C 28,3 C 72 % 0 lf 1011,0 hPa 0,0 l/m 2 min 0 min 810 W/m 14,6 km/h (3 Bft) 95,74 %
11.07.2017 11:12 21,4 C 28,3 C 27,8 C 71 % 0 lf 1011,0 hPa 0,0 l/m 2 min 0 min 765 W/m 29,3 km/h (5 Bft) 95,74 %
11.07.2017 11:14 21,5 C 28,9 C 27,8 C 70 % 0 lf 1011,0 hPa 0,0 l/m 2 min 0 min 697 W/m 29,3 km/h (5 Bft) 100,00 %
11.07.2017 11:16 21,6 C 28,9 C 27,8 C 71 % 0 lf 1011,0 hPa 0,0 l/m 2 min 0 min 761 W/m 23,0 km/h (4 Bft) 100,00 %
11.07.2017 11:18 21,7 C 28,9 C 27,8 C 70 % 0 lf 1011,0 hPa 0,0 l/m 2 min 0 min 779 W/m 31,4 km/h (5 Bft) 93,62 %
11.07.2017 11:20 21,8 C 28,3 C 27,8 C 70 % 0 lf 1011,0 hPa 0,0 l/m 2 min 0 min 768 W/m 16,7 km/h (3 Bft) 97,87 %
11.07.2017 11:22 21,8 C 30,0 C 27,8 C 70 % 0 lf 1011,0 hPa 0,0 l/m 2 min 0 min 776 W/m 16,7 km/h (3 Bft) 93,62 %
11.07.2017 11:24 21,9 C 30,6 C 28,9 C 71 % 0 lf 1011,0 hPa 0,0 l/m 2 min 0 min 842 W/m 16,7 km/h (3 Bft) 97,87 %
11.07.2017 11:26 22,1 C 30,0 C 28,9 C 70 % 0 lf 1011,0 hPa 0,0 l/m 2 min 0 min 836 W/m 31,4 km/h (5 Bft) 97,83 %
11.07.2017 11:28 22,2 C 31,7 C 30,0 C 69 % 0 lf 1011,0 hPa 0,0 l/m 2 min 0 min 851 W/m 14,6 km/h (3 Bft) 97,87 %
11.07.2017 11:30 22,4 C 32,8 C 29,4 C 70 % 0 lf 1010,9 hPa 0,0 l/m 2 min 0 min 858 W/m 23,0 km/h (4 Bft) 97,87 %
11.07.2017 11:32 22,6 C 30,6 C 27,8 C 67 % 0 lf 1011,0 hPa 0,0 l/m 2 min 0 min 808 W/m 31,4 km/h (5 Bft) 95,74 %
11.07.2017 11:34 22,6 C 29,4 C 26,7 C 66 % 0 lf 1011,0 hPa 0,0 l/m 2 min 0 min 844 W/m 29,3 km/h (5 Bft) 100,00 %
11.07.2017 11:36 22,7 C 27,2 C 26,1 C 65 % 0 lf 1010,9 hPa 0,0 l/m 2 min 0 min 854 W/m 29,3 km/h (5 Bft) 95,65 %
11.07.2017 11:38 22,6 C 27,2 C 25,6 C 65 % 0 lf 1011,0 hPa 0,0 l/m 2 min 0 min 744 W/m 25,1 km/h (4 Bft) 95,74 %
11.07.2017 11:40 22,6 C 26,7 C 26,1 C 65 % 0 lf 1010,9 hPa 0,0 l/m 2 min 0 min 467 W/m 27,2 km/h (4 Bft) 91,49 %
11.07.2017 11:42 22,6 C 27,8 C 27,2 C 66 % 0 lf 1010,9 hPa 0,0 l/m 2 min 0 min 388 W/m 18,8 km/h (3 Bft) 95,74 %
11.07.2017 11:44 22,7 C 30,0 C 28,3 C 67 % 0 lf 1010,9 hPa 0,0 l/m 2 min 0 min 777 W/m 23,0 km/h (4 Bft) 95,74 %
11.07.2017 11:46 22,7 C 30,6 C 29,4 C 66 % 0 lf 1010,9 hPa 0,0 l/m 2 min 0 min 862 W/m 31,4 km/h (5 Bft) 95,74 %
11.07.2017 11:48 22,8 C 28,9 C 28,9 C 65 % 0 lf 1011,0 hPa 0,0 l/m 2 min 0 min 888 W/m 33,5 km/h (5 Bft) 95,65 %
11.07.2017 11:50 22,8 C 30,0 C 28,9 C 65 % 0 lf 1010,9 hPa 0,0 l/m 2 min 0 min 824 W/m 18,8 km/h (3 Bft) 93,62 %
11.07.2017 11:52 22,9 C 30,6 C 29,4 C 65 % 0 lf 1011,0 hPa 0,0 l/m 2 min 0 min 721 W/m 25,1 km/h (4 Bft) 93,62 %
11.07.2017 11:54 23,1 C 30,6 C 29,4 C 64 % 0 lf 1010,9 hPa 0,0 l/m 2 min 0 min 721 W/m 29,3 km/h (5 Bft) 93,62 %
11.07.2017 11:56 23,2 C 30,6 C 30,0 C 64 % 0 lf 1010,9 hPa 0,0 l/m 2 min 0 min 658 W/m 27,2 km/h (4 Bft) 91,49 %
11.07.2017 11:58 23,2 C 28,9 C 29,4 C 63 % 0 lf 1010,9 hPa 0,0 l/m 2 min 0 min 612 W/m 27,2 km/h (4 Bft) 93,62 %
11.07.2017 12:00 23,3 C 31,7 C 31,1 C 64 % 0 lf 1010,8 hPa 0,0 l/m 2 min 0 min 528 W/m 18,8 km/h (3 Bft) 93,48 %
11.07.2017 12:02 23,4 C 30,0 C 30,0 C 63 % 0 lf 1010,8 hPa 0,0 l/m 2 min 0 min 488 W/m 23,0 km/h (4 Bft) 89,36 %
11.07.2017 12:04 23,4 C 29,4 C 30,0 C 63 % 0 lf 1010,8 hPa 0,0 l/m 0 min 0 min 248 W/m 37,7 km/h (5 Bft) 93,62 %
11.07.2017 12:06 23,5 C 28,9 C 30,0 C 62 % 0 lf 1010,8 hPa 0,0 l/m 2 min 0 min 624 W/m 33,5 km/h (5 Bft) 95,74 %
11.07.2017 12:08 23,6 C 30,0 C 30,6 C 63 % 0 lf 1010,8 hPa 0,0 l/m 2 min 0 min 855 W/m 18,8 km/h (3 Bft) 95,74 %
11.07.2017 12:12 23,7 C 30,6 C 31,7 C 61 % 0 lf 1010,9 hPa 0,0 l/m 4 min 0 min 949 W/m 25,1 km/h (4 Bft) 94,62 %
11.07.2017 12:14 23,8 C 30,6 C 32,8 C 62 % 0 lf 1010,8 hPa 0,0 l/m 2 min 0 min 965 W/m 31,4 km/h (5 Bft) 95,74 %
11.07.2017 12:16 23,9 C 31,1 C 32,8 C 62 % 0 lf 1010,8 hPa 0,0 l/m 2 min 0 min 932 W/m 18,8 km/h (3 Bft) 91,49 %
11.07.2017 12:18 24,1 C 31,1 C 32,8 C 63 % 0 lf 1010,8 hPa 0,0 l/m 2 min 0 min 926 W/m 14,6 km/h (3 Bft) 95,74 %
11.07.2017 12:20 24,2 C 32,2 C 32,2 C 62 % 0 lf 1010,8 hPa 0,0 l/m 2 min 0 min 986 W/m 23,0 km/h (4 Bft) 95,74 %
11.07.2017 12:22 24,3 C 31,7 C 32,2 C 59 % 0 lf 1010,8 hPa 0,0 l/m 2 min 0 min 1021 W/m 18,8 km/h (3 Bft) 93,62 %
11.07.2017 12:24 24,5 C 32,8 C 32,2 C 61 % 0 lf 1010,7 hPa 0,0 l/m 2 min 0 min 999 W/m 20,9 km/h (4 Bft) 95,65 %
11.07.2017 12:26 24,6 C 32,2 C 32,8 C 60 % 0 lf 1010,7 hPa 0,0 l/m 2 min 0 min 899 W/m 20,9 km/h (4 Bft) 93,62 %
11.07.2017 12:28 24,7 C 31,7 C 32,2 C 58 % 0 lf 1010,6 hPa 0,0 l/m 2 min 0 min 893 W/m 25,1 km/h (4 Bft) 93,62 %
11.07.2017 12:30 24,7 C 31,7 C 31,7 C 57 % 0 lf 1010,6 hPa 0,0 l/m 2 min 0 min 872 W/m 27,2 km/h (4 Bft) 97,87 %
11.07.2017 12:32 24,8 C 32,2 C 32,2 C 58 % 0 lf 1010,7 hPa 0,0 l/m 2 min 0 min 876 W/m 16,7 km/h (3 Bft) 95,74 %
11.07.2017 12:34 24,9 C 31,7 C 31,7 C 57 % 0 lf 1010,6 hPa 0,0 l/m 2 min 0 min 922 W/m 25,1 km/h (4 Bft) 93,62 %
11.07.2017 12:36 24,9 C 31,1 C 31,7 C 57 % 0 lf 1010,6 hPa 0,0 l/m 2 min 0 min 922 W/m 27,2 km/h (4 Bft) 97,83 %
11.07.2017 12:38 24,9 C 31,1 C 31,7 C 56 % 0 lf 1010,7 hPa 0,0 l/m 2 min 0 min 948 W/m 29,3 km/h (5 Bft) 97,87 %
11.07.2017 12:40 24,8 C 30,6 C 31,7 C 56 % 0 lf 1010,6 hPa 0,0 l/m 2 min 0 min 1000 W/m 25,1 km/h (4 Bft) 95,74 %
11.07.2017 12:42 24,8 C 30,6 C 31,7 C 56 % 0 lf 1010,6 hPa 0,0 l/m 2 min 0 min 951 W/m 29,3 km/h (5 Bft) 97,87 %
11.07.2017 12:44 24,8 C 30,0 C 31,1 C 56 % 0 lf 1010,6 hPa 0,0 l/m 2 min 0 min 924 W/m 37,7 km/h (5 Bft) 93,62 %
11.07.2017 12:46 24,8 C 30,0 C 30,0 C 56 % 0 lf 1010,6 hPa 0,0 l/m 2 min 0 min 944 W/m 18,8 km/h (3 Bft) 95,65 %
11.07.2017 12:48 24,8 C 30,6 C 29,4 C 56 % 0 lf 1010,7 hPa 0,0 l/m 2 min 0 min 922 W/m 33,5 km/h (5 Bft) 93,62 %
11.07.2017 12:50 24,8 C 28,9 C 28,3 C 56 % 0 lf 1010,7 hPa 0,0 l/m 2 min 0 min 751 W/m 27,2 km/h (4 Bft) 95,74 %
11.07.2017 12:52 24,7 C 28,9 C 28,3 C 56 % 0 lf 1010,7 hPa 0,0 l/m 2 min 0 min 582 W/m 25,1 km/h (4 Bft) 91,49 %
11.07.2017 12:54 24,7 C 27,8 C 27,8 C 55 % 0 lf 1010,7 hPa 0,0 l/m 2 min 0 min 635 W/m 20,9 km/h (4 Bft) 95,74 %
11.07.2017 12:56 24,7 C 28,3 C 27,8 C 56 % 0 lf 1010,6 hPa 0,0 l/m 0 min 0 min 289 W/m 25,1 km/h (4 Bft) 93,62 %
11.07.2017 12:58 24,6 C 27,2 C 26,7 C 58 % 0 lf 1010,8 hPa 0,0 l/m 0 min 0 min 277 W/m 25,1 km/h (4 Bft) 97,83 %
11.07.2017 13:00 24,5 C 26,1 C 26,1 C 57 % 0 lf 1010,8 hPa 0,0 l/m 0 min 0 min 250 W/m 25,1 km/h (4 Bft) 97,87 %
11.07.2017 13:02 24,3 C 25,6 C 25,6 C 56 % 0 lf 1010,8 hPa 0,0 l/m 0 min 0 min 308 W/m 31,4 km/h (5 Bft) 93,62 %
11.07.2017 13:04 24,1 C 25,0 C 25,6 C 57 % 0 lf 1010,8 hPa 0,0 l/m 0 min 0 min 298 W/m 25,1 km/h (4 Bft) 95,74 %
11.07.2017 13:06 23,9 C 25,6 C 25,6 C 57 % 0 lf 1010,8 hPa 0,0 l/m 0 min 0 min 359 W/m 23,0 km/h (4 Bft) 97,87 %
11.07.2017 13:08 23,9 C 27,8 C 27,8 C 57 % 0 lf 1010,8 hPa 0,0 l/m 0 min 0 min 415 W/m 27,2 km/h (4 Bft) 97,87 %
11.07.2017 13:10 23,8 C 28,9 C 28,3 C 58 % 0 lf 1010,6 hPa 0,0 l/m 2 min 0 min 645 W/m 31,4 km/h (5 Bft) 97,83 %
11.07.2017 13:12 23,9 C 29,4 C 28,9 C 59 % 0 lf 1010,7 hPa 0,0 l/m 2 min 0 min 958 W/m 33,5 km/h (5 Bft) 97,87 %
11.07.2017 13:14 24,0 C 28,3 C 28,9 C 57 % 0 lf 1010,7 hPa 0,0 l/m 2 min 0 min 941 W/m 29,3 km/h (5 Bft) 95,74 %
11.07.2017 13:16 24,0 C 27,8 C 28,3 C 58 % 0 lf 1010,7 hPa 0,0 l/m 2 min 0 min 951 W/m 27,2 km/h (4 Bft) 97,87 %
11.07.2017 13:18 24,0 C 27,2 C 27,8 C 58 % 0 lf 1010,7 hPa 0,0 l/m 2 min 0 min 951 W/m 27,2 km/h (4 Bft) 97,87 %
11.07.2017 13:20 23,9 C 26,7 C 27,2 C 58 % 0 lf 1010,7 hPa 0,0 l/m 2 min 0 min 791 W/m 25,1 km/h (4 Bft) 97,87 %
11.07.2017 13:22 23,9 C 28,3 C 27,8 C 59 % 0 lf 1010,7 hPa 0,0 l/m 2 min 0 min 647 W/m 23,0 km/h (4 Bft) 100,00 %
11.07.2017 13:24 24,0 C 29,4 C 27,8 C 59 % 0 lf 1010,6 hPa 0,0 l/m 2 min 0 min 933 W/m 27,2 km/h (4 Bft) 100,00 %
11.07.2017 13:26 24,1 C 28,3 C 27,2 C 58 % 0 lf 1010,6 hPa 0,0 l/m 2 min 0 min 854 W/m 25,1 km/h (4 Bft) 97,87 %
11.07.2017 13:28 24,1 C 27,8 C 26,7 C 59 % 0 lf 1010,6 hPa 0,0 l/m 2 min 0 min 606 W/m 25,1 km/h (4 Bft) 100,00 %
11.07.2017 13:30 24,1 C 27,8 C 26,7 C 59 % 0 lf 1010,7 hPa 0,0 l/m 0 min 0 min 309 W/m 25,1 km/h (4 Bft) 100,00 %
11.07.2017 13:32 24,1 C 27,2 C 26,7 C 58 % 0 lf 1010,6 hPa 0,0 l/m 0 min 0 min 309 W/m 18,8 km/h (3 Bft) 100,00 %
11.07.2017 13:34 24,1 C 27,2 C 26,7 C 58 % 0 lf 1010,6 hPa 0,0 l/m 0 min 0 min 308 W/m 18,8 km/h (3 Bft) 97,83 %
11.07.2017 13:36 24,1 C 26,7 C 26,1 C 58 % 0 lf 1010,6 hPa 0,0 l/m 0 min 0 min 287 W/m 12,6 km/h (3 Bft) 100,00 %
11.07.2017 13:38 24,1 C 26,7 C 26,1 C 58 % 0 lf 1010,6 hPa 0,0 l/m 0 min 0 min 286 W/m 18,8 km/h (3 Bft) 97,87 %
11.07.2017 13:40 24,1 C 26,1 C 26,1 C 57 % 0 lf 1010,6 hPa 0,0 l/m 0 min 0 min 366 W/m 23,0 km/h (4 Bft) 100,00 %
11.07.2017 13:42 24,1 C 27,2 C 26,7 C 58 % 0 lf 1010,6 hPa 0,0 l/m 2 min 0 min 780 W/m 25,1 km/h (4 Bft) 100,00 %
11.07.2017 13:44 24,0 C 27,2 C 26,7 C 58 % 0 lf 1010,5 hPa 0,0 l/m 2 min 0 min 1002 W/m 25,1 km/h (4 Bft) 100,00 %
11.07.2017 13:46 24,0 C 27,8 C 26,7 C 58 % 0 lf 1010,6 hPa 0,0 l/m 2 min 0 min 935 W/m 23,0 km/h (4 Bft) 100,00 %
11.07.2017 13:48 24,1 C 28,9 C 27,2 C 58 % 0 lf 1010,5 hPa 0,0 l/m 2 min 0 min 845 W/m 23,0 km/h (4 Bft) 100,00 %
11.07.2017 13:50 24,2 C 30,0 C 27,8 C 58 % 0 lf 1010,6 hPa 0,0 l/m 2 min 0 min 826 W/m 33,5 km/h (5 Bft) 100,00 %
11.07.2017 13:52 24,3 C 30,6 C 27,8 C 58 % 0 lf 1010,6 hPa 0,0 l/m 2 min 0 min 847 W/m 29,3 km/h (5 Bft) 97,87 %
11.07.2017 13:54 24,4 C 27,8 C 26,7 C 56 % 0 lf 1010,6 hPa 0,0 l/m 2 min 0 min 867 W/m 29,3 km/h (5 Bft) 95,74 %
11.07.2017 13:56 24,3 C 27,2 C 26,1 C 56 % 0 lf 1010,5 hPa 0,0 l/m 2 min 0 min 723 W/m 29,3 km/h (5 Bft) 97,87 %
11.07.2017 13:58 24,2 C 26,1 C 26,7 C 57 % 0 lf 1010,6 hPa 0,0 l/m 0 min 0 min 388 W/m 25,1 km/h (4 Bft) 95,65 %
11.07.2017 14:00 24,2 C 26,7 C 26,7 C 57 % 0 lf 1010,5 hPa 0,0 l/m 0 min 0 min 396 W/m 23,0 km/h (4 Bft) 95,74 %
11.07.2017 14:02 24,2 C 27,2 C 27,2 C 58 % 0 lf 1010,6 hPa 0,0 l/m 2 min 0 min 862 W/m 31,4 km/h (5 Bft) 97,87 %
11.07.2017 14:04 24,2 C 26,7 C 26,7 C 57 % 0 lf 1010,6 hPa 0,0 l/m 0 min 0 min 354 W/m 25,1 km/h (4 Bft) 97,87 %
11.07.2017 14:06 24,2 C 26,1 C 26,7 C 58 % 0 lf 1010,6 hPa 0,0 l/m 0 min 0 min 306 W/m 27,2 km/h (4 Bft) 95,74 %
11.07.2017 14:08 24,2 C 25,6 C 26,7 C 57 % 0 lf 1010,5 hPa 0,0 l/m 0 min 0 min 354 W/m 14,6 km/h (3 Bft) 97,83 %
11.07.2017 14:10 24,1 C 25,0 C 26,1 C 57 % 0 lf 1010,6 hPa 0,0 l/m 0 min 0 min 340 W/m 31,4 km/h (5 Bft) 95,74 %
11.07.2017 14:12 24,1 C 26,1 C 27,2 C 57 % 0 lf 1010,6 hPa 0,0 l/m 0 min 0 min 339 W/m 18,8 km/h (3 Bft) 97,87 %
11.07.2017 14:14 24,1 C 28,3 C 29,4 C 57 % 0 lf 1010,5 hPa 0,0 l/m 2 min 0 min 815 W/m 35,6 km/h (5 Bft) 95,74 %
11.07.2017 14:16 24,2 C 28,3 C 30,0 C 57 % 0 lf 1010,6 hPa 0,0 l/m 2 min 0 min 811 W/m 31,4 km/h (5 Bft) 95,74 %
11.07.2017 14:18 24,2 C 27,8 C 29,4 C 58 % 0 lf 1010,5 hPa 0,0 l/m 2 min 0 min 684 W/m 20,9 km/h (4 Bft) 95,74 %
11.07.2017 14:20 24,3 C 27,2 C 28,9 C 57 % 0 lf 1010,6 hPa 0,0 l/m 2 min 0 min 426 W/m 20,9 km/h (4 Bft) 97,83 %
11.07.2017 14:22 24,3 C 27,2 C 28,3 C 57 % 0 lf 1010,5 hPa 0,0 l/m 0 min 0 min 410 W/m 25,1 km/h (4 Bft) 95,74 %
11.07.2017 14:24 24,3 C 27,2 C 28,9 C 57 % 0 lf 1010,5 hPa 0,0 l/m 2 min 0 min 444 W/m 20,9 km/h (4 Bft) 97,87 %
11.07.2017 14:26 24,3 C 26,7 C 28,3 C 56 % 0 lf 1010,6 hPa 0,0 l/m 2 min 0 min 536 W/m 23,0 km/h (4 Bft) 95,74 %
11.07.2017 14:28 24,4 C 28,3 C 29,4 C 57 % 0 lf 1010,5 hPa 0,0 l/m 2 min 0 min 664 W/m 23,0 km/h (4 Bft) 97,87 %
11.07.2017 14:30 24,5 C 28,9 C 30,0 C 57 % 0 lf 1010,6 hPa 0,0 l/m 2 min 0 min 668 W/m 20,9 km/h (4 Bft) 97,87 %
11.07.2017 14:32 24,6 C 28,3 C 30,0 C 57 % 0 lf 1010,5 hPa 0,0 l/m 2 min 0 min 462 W/m 20,9 km/h (4 Bft) 97,83 %
11.07.2017 14:34 24,7 C 27,8 C 29,4 C 57 % 0 lf 1010,6 hPa 0,0 l/m 2 min 0 min 444 W/m 14,6 km/h (3 Bft) 95,74 %
11.07.2017 14:36 24,7 C 27,8 C 28,9 C 57 % 0 lf 1010,6 hPa 0,0 l/m 0 min 0 min 411 W/m 18,8 km/h (3 Bft) 97,87 %
11.07.2017 14:38 24,7 C 27,2 C 28,3 C 57 % 0 lf 1010,6 hPa 0,0 l/m 2 min 0 min 415 W/m 18,8 km/h (3 Bft) 97,87 %
11.07.2017 14:40 24,7 C 27,8 C 28,3 C 58 % 0 lf 1010,6 hPa 0,0 l/m 2 min 0 min 447 W/m 14,6 km/h (3 Bft) 97,87 %
11.07.2017 14:42 24,7 C 28,3 C 29,4 C 57 % 0 lf 1010,6 hPa 0,0 l/m 2 min 0 min 562 W/m 16,7 km/h (3 Bft) 100,00 %
11.07.2017 14:44 24,8 C 29,4 C 30,6 C 58 % 0 lf 1010,6 hPa 0,0 l/m 2 min 0 min 737 W/m 14,6 km/h (3 Bft) 95,65 %
11.07.2017 14:46 24,9 C 29,4 C 30,6 C 57 % 0 lf 1010,5 hPa 0,0 l/m 2 min 0 min 685 W/m 20,9 km/h (4 Bft) 100,00 %
11.07.2017 14:48 25,0 C 28,9 C 30,6 C 56 % 0 lf 1010,6 hPa 0,0 l/m 2 min 0 min 678 W/m 25,1 km/h (4 Bft) 95,74 %
11.07.2017 14:50 24,9 C 27,2 C 28,9 C 55 % 0 lf 1010,7 hPa 0,0 l/m 2 min 0 min 645 W/m 33,5 km/h (5 Bft) 95,74 %
11.07.2017 14:52 24,9 C 27,2 C 28,3 C 56 % 0 lf 1010,7 hPa 0,0 l/m 2 min 0 min 539 W/m 31,4 km/h (5 Bft) 95,74 %
11.07.2017 14:54 24,8 C 27,2 C 28,9 C 56 % 0 lf 1010,7 hPa 0,0 l/m 2 min 0 min 621 W/m 27,2 km/h (4 Bft) 95,74 %
11.07.2017 14:56 24,7 C 26,1 C 28,3 C 56 % 0 lf 1010,7 hPa 0,0 l/m 2 min 0 min 573 W/m 29,3 km/h (5 Bft) 95,65 %
11.07.2017 14:58 24,7 C 26,1 C 28,3 C 56 % 0 lf 1010,7 hPa 0,0 l/m 2 min 0 min 432 W/m 16,7 km/h (3 Bft) 95,74 %
11.07.2017 15:00 24,6 C 26,1 C 27,8 C 56 % 0 lf 1010,7 hPa 0,0 l/m 2 min 0 min 418 W/m 25,1 km/h (4 Bft) 93,62 %
11.07.2017 15:02 24,5 C 26,1 C 27,8 C 57 % 0 lf 1010,7 hPa 0,0 l/m 2 min 0 min 425 W/m 14,6 km/h (3 Bft) 95,74 %
11.07.2017 15:04 24,4 C 26,1 C 27,8 C 57 % 0 lf 1010,7 hPa 0,0 l/m 0 min 0 min 392 W/m 29,3 km/h (5 Bft) 91,49 %
11.07.2017 15:06 24,4 C 26,1 C 27,8 C 58 % 0 lf 1010,7 hPa 0,0 l/m 0 min 0 min 382 W/m 25,1 km/h (4 Bft) 89,36 %
11.07.2017 15:08 24,3 C 26,1 C 27,8 C 58 % 0 lf 1010,7 hPa 0,0 l/m 2 min 0 min 436 W/m 16,7 km/h (3 Bft) 93,48 %
11.07.2017 15:10 24,3 C 26,7 C 28,3 C 58 % 0 lf 1010,8 hPa 0,0 l/m 2 min 0 min 536 W/m 23,0 km/h (4 Bft) 95,74 %
11.07.2017 15:12 24,3 C 27,8 C 30,0 C 58 % 0 lf 1010,8 hPa 0,0 l/m 2 min 0 min 598 W/m 25,1 km/h (4 Bft) 95,74 %
11.07.2017 15:14 24,3 C 27,8 C 30,6 C 58 % 0 lf 1010,7 hPa 0,0 l/m 2 min 0 min 608 W/m 25,1 km/h (4 Bft) 93,62 %
11.07.2017 15:16 24,4 C 27,2 C 30,0 C 58 % 0 lf 1010,7 hPa 0,0 l/m 2 min 0 min 608 W/m 23,0 km/h (4 Bft) 91,49 %
11.07.2017 15:18 24,4 C 26,7 C 29,4 C 58 % 0 lf 1010,8 hPa 0,0 l/m 2 min 0 min 415 W/m 16,7 km/h (3 Bft) 95,74 %
11.07.2017 15:20 24,4 C 26,7 C 28,9 C 58 % 0 lf 1010,8 hPa 0,0 l/m 0 min 0 min 354 W/m 16,7 km/h (3 Bft) 93,48 %
11.07.2017 15:22 24,4 C 26,1 C 27,8 C 58 % 0 lf 1010,8 hPa 0,0 l/m 0 min 0 min 374 W/m 25,1 km/h (4 Bft) 93,62 %
11.07.2017 15:24 24,4 C 26,7 C 27,8 C 58 % 0 lf 1010,7 hPa 0,0 l/m 0 min 0 min 350 W/m 18,8 km/h (3 Bft) 91,49 %
11.07.2017 15:26 24,3 C 26,7 C 27,8 C 58 % 0 lf 1010,8 hPa 0,0 l/m 2 min 0 min 437 W/m 27,2 km/h (4 Bft) 89,36 %
11.07.2017 15:28 24,3 C 26,7 C 28,3 C 58 % 0 lf 1010,8 hPa 0,0 l/m 2 min 0 min 475 W/m 31,4 km/h (5 Bft) 93,62 %
11.07.2017 15:30 24,3 C 26,7 C 27,8 C 58 % 0 lf 1010,7 hPa 0,0 l/m 2 min 0 min 445 W/m 23,0 km/h (4 Bft) 91,49 %
11.07.2017 15:32 24,2 C 26,1 C 27,2 C 57 % 0 lf 1010,7 hPa 0,0 l/m 2 min 0 min 389 W/m 35,6 km/h (5 Bft) 95,65 %
11.07.2017 15:34 24,1 C 25,6 C 26,7 C 56 % 0 lf 1010,7 hPa 0,0 l/m 2 min 0 min 401 W/m 25,1 km/h (4 Bft) 95,74 %
11.07.2017 15:36 24,1 C 25,0 C 26,7 C 57 % 0 lf 1010,8 hPa 0,0 l/m 0 min 0 min 366 W/m 29,3 km/h (5 Bft) 95,74 %
11.07.2017 15:38 24,0 C 25,6 C 26,7 C 57 % 0 lf 1010,8 hPa 0,0 l/m 2 min 0 min 396 W/m 27,2 km/h (4 Bft) 93,62 %
11.07.2017 15:40 24,0 C 26,1 C 27,8 C 58 % 0 lf 1010,8 hPa 0,0 l/m 2 min 0 min 471 W/m 23,0 km/h (4 Bft) 93,62 %
11.07.2017 15:42 24,0 C 26,1 C 27,2 C 57 % 0 lf 1010,7 hPa 0,0 l/m 2 min 0 min 447 W/m 29,3 km/h (5 Bft) 97,83 %
11.07.2017 15:44 24,0 C 26,1 C 27,8 C 57 % 0 lf 1010,8 hPa 0,0 l/m 2 min 0 min 488 W/m 35,6 km/h (5 Bft) 95,74 %
11.07.2017 15:46 24,0 C 26,1 C 27,8 C 57 % 0 lf 1010,7 hPa 0,0 l/m 2 min 0 min 540 W/m 20,9 km/h (4 Bft) 93,62 %
11.07.2017 15:48 24,1 C 26,1 C 27,8 C 57 % 0 lf 1010,7 hPa 0,0 l/m 2 min 0 min 497 W/m 29,3 km/h (5 Bft) 97,87 %
11.07.2017 15:50 24,0 C 25,6 C 26,7 C 56 % 0 lf 1010,7 hPa 0,0 l/m 2 min 0 min 400 W/m 37,7 km/h (5 Bft) 91,49 %
11.07.2017 15:52 23,9 C 25,0 C 26,7 C 57 % 0 lf 1010,8 hPa 0,0 l/m 2 min 0 min 378 W/m 27,2 km/h (4 Bft) 97,87 %
11.07.2017 15:54 23,9 C 25,6 C 26,7 C 57 % 0 lf 1010,8 hPa 0,0 l/m 2 min 0 min 399 W/m 29,3 km/h (5 Bft) 95,74 %
11.07.2017 15:56 23,8 C 26,1 C 27,2 C 57 % 0 lf 1010,7 hPa 0,0 l/m 2 min 0 min 442 W/m 27,2 km/h (4 Bft) 97,83 %
11.07.2017 15:58 23,8 C 26,1 C 27,2 C 57 % 0 lf 1010,7 hPa 0,0 l/m 2 min 0 min 486 W/m 41,8 km/h (6 Bft) 95,74 %
11.07.2017 16:00 23,8 C 25,6 C 27,8 C 57 % 0 lf 1010,7 hPa 0,0 l/m 2 min 0 min 626 W/m 31,4 km/h (5 Bft) 97,87 %
11.07.2017 16:02 23,9 C 27,8 C 30,6 C 58 % 0 lf 1010,7 hPa 0,0 l/m 2 min 0 min 720 W/m 20,9 km/h (4 Bft) 95,74 %
11.07.2017 16:04 24,1 C 28,9 C 32,8 C 58 % 0 lf 1010,6 hPa 0,0 l/m 2 min 0 min 850 W/m 27,2 km/h (4 Bft) 97,87 %
11.07.2017 16:06 24,2 C 27,8 C 31,7 C 56 % 0 lf 1010,6 hPa 0,0 l/m 2 min 0 min 742 W/m 29,3 km/h (5 Bft) 97,83 %
11.07.2017 16:08 24,3 C 27,2 C 30,6 C 56 % 0 lf 1010,7 hPa 0,0 l/m 2 min 0 min 447 W/m 20,9 km/h (4 Bft) 95,74 %
11.07.2017 16:10 24,4 C 27,2 C 30,6 C 55 % 0 lf 1010,6 hPa 0,0 l/m 2 min 0 min 380 W/m 31,4 km/h (5 Bft) 95,74 %
11.07.2017 16:12 24,5 C 27,2 C 30,0 C 55 % 0 lf 1010,6 hPa 0,0 l/m 2 min 0 min 468 W/m 25,1 km/h (4 Bft) 95,74 %
11.07.2017 16:14 24,5 C 26,7 C 29,4 C 55 % 0 lf 1010,7 hPa 0,0 l/m 2 min 0 min 503 W/m 41,8 km/h (6 Bft) 97,87 %
11.07.2017 16:16 24,5 C 27,2 C 30,6 C 55 % 0 lf 1010,6 hPa 0,0 l/m 2 min 0 min 501 W/m 29,3 km/h (5 Bft) 95,74 %
11.07.2017 16:18 24,6 C 27,2 C 31,7 C 56 % 0 lf 1010,6 hPa 0,0 l/m 2 min 0 min 745 W/m 27,2 km/h (4 Bft) 97,83 %
11.07.2017 16:20 24,6 C 26,1 C 30,0 C 55 % 0 lf 1010,5 hPa 0,0 l/m 2 min 0 min 684 W/m 29,3 km/h (5 Bft) 100,00 %
11.07.2017 16:22 24,6 C 26,1 C 29,4 C 55 % 0 lf 1010,5 hPa 0,0 l/m 0 min 0 min 314 W/m 16,7 km/h (3 Bft) 97,87 %
11.07.2017 16:24 24,6 C 26,1 C 28,9 C 55 % 0 lf 1010,5 hPa 0,0 l/m 0 min 0 min 317 W/m 18,8 km/h (3 Bft) 100,00 %
11.07.2017 16:26 24,7 C 26,7 C 28,3 C 55 % 0 lf 1010,5 hPa 0,0 l/m 2 min 0 min 379 W/m 20,9 km/h (4 Bft) 97,87 %
11.07.2017 16:28 24,7 C 26,7 C 28,3 C 55 % 0 lf 1010,5 hPa 0,0 l/m 2 min 0 min 364 W/m 20,9 km/h (4 Bft) 95,74 %
11.07.2017 16:30 24,7 C 26,1 C 27,2 C 54 % 0 lf 1010,5 hPa 0,0 l/m 0 min 0 min 311 W/m 23,0 km/h (4 Bft) 97,83 %
11.07.2017 16:32 24,6 C 25,6 C 26,7 C 54 % 0 lf 1010,5 hPa 0,0 l/m 0 min 0 min 266 W/m 20,9 km/h (4 Bft) 97,87 %
11.07.2017 16:34 24,5 C 25,0 C 25,6 C 54 % 0 lf 1010,5 hPa 0,0 l/m 0 min 0 min 251 W/m 27,2 km/h (4 Bft) 91,49 %
11.07.2017 16:36 24,4 C 25,0 C 25,6 C 55 % 0 lf 1010,5 hPa 0,0 l/m 0 min 0 min 261 W/m 20,9 km/h (4 Bft) 97,87 %
11.07.2017 16:38 24,4 C 25,0 C 25,6 C 55 % 0 lf 1010,5 hPa 0,0 l/m 0 min 0 min 267 W/m 23,0 km/h (4 Bft) 95,74 %
11.07.2017 16:40 24,3 C 25,0 C 25,6 C 54 % 0 lf 1010,5 hPa 0,0 l/m 0 min 0 min 267 W/m 27,2 km/h (4 Bft) 95,74 %
11.07.2017 16:42 24,2 C 25,0 C 25,6 C 54 % 0 lf 1010,4 hPa 0,0 l/m 0 min 0 min 275 W/m 23,0 km/h (4 Bft) 97,83 %
11.07.2017 16:44 24,2 C 25,0 C 25,6 C 54 % 0 lf 1010,5 hPa 0,0 l/m 0 min 0 min 282 W/m 25,1 km/h (4 Bft) 97,87 %
11.07.2017 16:46 24,1 C 25,0 C 25,6 C 54 % 0 lf 1010,5 hPa 0,0 l/m 0 min 0 min 277 W/m 27,2 km/h (4 Bft) 95,74 %
11.07.2017 16:48 24,0 C 25,0 C 25,6 C 55 % 0 lf 1010,5 hPa 0,0 l/m 0 min 0 min 261 W/m 29,3 km/h (5 Bft) 95,74 %
11.07.2017 16:50 23,9 C 25,0 C 25,6 C 55 % 0 lf 1010,5 hPa 0,0 l/m 0 min 0 min 256 W/m 18,8 km/h (3 Bft) 95,74 %
11.07.2017 16:52 23,9 C 25,0 C 25,6 C 55 % 0 lf 1010,4 hPa 0,0 l/m 0 min 0 min 266 W/m 37,7 km/h (5 Bft) 95,74 %
11.07.2017 16:54 23,8 C 25,0 C 25,0 C 55 % 0 lf 1010,4 hPa 0,0 l/m 0 min 0 min 272 W/m 25,1 km/h (4 Bft) 97,83 %
11.07.2017 16:56 23,8 C 25,0 C 25,6 C 55 % 0 lf 1010,5 hPa 0,0 l/m 0 min 0 min 277 W/m 20,9 km/h (4 Bft) 97,87 %
11.07.2017 16:58 23,8 C 25,0 C 25,6 C 56 % 0 lf 1010,4 hPa 0,0 l/m 0 min 0 min 275 W/m 23,0 km/h (4 Bft) 93,62 %
11.07.2017 17:00 23,8 C 25,0 C 25,0 C 55 % 0 lf 1010,5 hPa 0,0 l/m 0 min 0 min 266 W/m 16,7 km/h (3 Bft) 95,74 %
11.07.2017 17:02 23,7 C 25,0 C 25,6 C 56 % 0 lf 1010,5 hPa 0,0 l/m 0 min 0 min 254 W/m 23,0 km/h (4 Bft) 95,74 %
11.07.2017 17:04 23,7 C 25,0 C 25,6 C 56 % 0 lf 1010,4 hPa 0,0 l/m 0 min 0 min 250 W/m 16,7 km/h (3 Bft) 93,48 %
11.07.2017 17:06 23,7 C 25,0 C 25,6 C 57 % 0 lf 1010,3 hPa 0,0 l/m 0 min 0 min 247 W/m 14,6 km/h (3 Bft) 95,74 %
11.07.2017 17:08 23,7 C 25,0 C 25,6 C 57 % 0 lf 1010,3 hPa 0,0 l/m 0 min 0 min 243 W/m 12,6 km/h (3 Bft) 95,74 %
11.07.2017 17:10 23,7 C 25,0 C 25,6 C 57 % 0 lf 1010,3 hPa 0,0 l/m 0 min 0 min 240 W/m 31,4 km/h (5 Bft) 97,87 %
11.07.2017 17:12 23,7 C 24,4 C 25,0 C 56 % 0 lf 1010,3 hPa 0,0 l/m 0 min 0 min 238 W/m 23,0 km/h (4 Bft) 95,74 %
11.07.2017 17:14 23,7 C 24,4 C 25,0 C 57 % 0 lf 1010,4 hPa 0,0 l/m 0 min 0 min 236 W/m 23,0 km/h (4 Bft) 97,87 %
11.07.2017 17:16 23,7 C 23,9 C 24,4 C 57 % 0 lf 1010,3 hPa 0,0 l/m 0 min 0 min 239 W/m 25,1 km/h (4 Bft) 95,74 %
11.07.2017 17:18 23,6 C 23,9 C 24,4 C 57 % 0 lf 1010,3 hPa 0,0 l/m 0 min 0 min 247 W/m 25,1 km/h (4 Bft) 97,83 %
11.07.2017 17:20 23,6 C 24,4 C 24,4 C 57 % 0 lf 1010,4 hPa 0,0 l/m 0 min 0 min 267 W/m 20,9 km/h (4 Bft) 97,87 %
11.07.2017 17:22 23,6 C 24,4 C 25,0 C 58 % 0 lf 1010,4 hPa 0,0 l/m 2 min 0 min 303 W/m 20,9 km/h (4 Bft) 97,87 %
11.07.2017 17:24 23,6 C 25,0 C 25,6 C 58 % 0 lf 1010,4 hPa 0,0 l/m 2 min 0 min 371 W/m 20,9 km/h (4 Bft) 97,87 %
11.07.2017 17:26 23,6 C 25,0 C 25,6 C 57 % 0 lf 1010,3 hPa 0,0 l/m 2 min 0 min 378 W/m 25,1 km/h (4 Bft) 95,74 %
11.07.2017 17:28 23,6 C 25,0 C 26,1 C 57 % 0 lf 1010,4 hPa 0,0 l/m 2 min 0 min 396 W/m 27,2 km/h (4 Bft) 97,87 %
11.07.2017 17:30 23,6 C 25,0 C 26,1 C 57 % 0 lf 1010,4 hPa 0,0 l/m 2 min 0 min 403 W/m 25,1 km/h (4 Bft) 97,83 %
11.07.2017 17:32 23,6 C 25,0 C 26,1 C 58 % 0 lf 1010,4 hPa 0,0 l/m 2 min 0 min 404 W/m 25,1 km/h (4 Bft) 95,74 %
11.07.2017 17:34 23,6 C 25,0 C 26,1 C 58 % 0 lf 1010,4 hPa 0,0 l/m 2 min 0 min 386 W/m 23,0 km/h (4 Bft) 100,00 %
11.07.2017 17:36 23,6 C 25,0 C 26,1 C 58 % 0 lf 1010,4 hPa 0,0 l/m 2 min 0 min 373 W/m 23,0 km/h (4 Bft) 100,00 %
11.07.2017 17:38 23,7 C 25,0 C 26,1 C 58 % 0 lf 1010,4 hPa 0,0 l/m 2 min 0 min 388 W/m 27,2 km/h (4 Bft) 100,00 %
11.07.2017 17:40 23,6 C 25,0 C 26,1 C 58 % 0 lf 1010,3 hPa 0,0 l/m 2 min 0 min 400 W/m 29,3 km/h (5 Bft) 97,87 %
11.07.2017 17:42 23,6 C 24,4 C 26,1 C 58 % 0 lf 1010,3 hPa 0,0 l/m 2 min 0 min 337 W/m 16,7 km/h (3 Bft) 97,87 %
11.07.2017 17:44 23,7 C 24,4 C 26,1 C 58 % 0 lf 1010,3 hPa 0,0 l/m 2 min 0 min 328 W/m 12,6 km/h (3 Bft) 97,83 %
11.07.2017 17:46 23,7 C 24,4 C 26,1 C 58 % 0 lf 1010,3 hPa 0,0 l/m 2 min 0 min 275 W/m 23,0 km/h (4 Bft) 100,00 %
11.07.2017 17:48 23,7 C 24,4 C 25,6 C 58 % 0 lf 1010,3 hPa 0,0 l/m 0 min 0 min 235 W/m 23,0 km/h (4 Bft) 100,00 %
11.07.2017 17:50 23,6 C 24,4 C 25,0 C 59 % 0 lf 1010,3 hPa 0,0 l/m 0 min 0 min 220 W/m 23,0 km/h (4 Bft) 97,87 %
11.07.2017 17:52 23,6 C 24,4 C 25,0 C 59 % 0 lf 1010,2 hPa 0,0 l/m 0 min 0 min 233 W/m 23,0 km/h (4 Bft) 97,87 %
11.07.2017 17:54 23,6 C 24,4 C 25,0 C 59 % 0 lf 1010,2 hPa 0,0 l/m 0 min 0 min 233 W/m 18,8 km/h (3 Bft) 100,00 %
11.07.2017 17:56 23,6 C 24,4 C 25,0 C 60 % 0 lf 1010,2 hPa 0,0 l/m 0 min 0 min 246 W/m 14,6 km/h (3 Bft) 100,00 %
11.07.2017 17:58 23,6 C 24,4 C 25,0 C 59 % 0 lf 1010,2 hPa 0,0 l/m 0 min 0 min 250 W/m 18,8 km/h (3 Bft) 97,87 %
11.07.2017 18:00 23,6 C 24,4 C 25,0 C 58 % 0 lf 1010,2 hPa 0,0 l/m 0 min 0 min 251 W/m 20,9 km/h (4 Bft) 95,74 %
11.07.2017 18:02 23,6 C 23,9 C 24,4 C 59 % 0 lf 1010,1 hPa 0,0 l/m 0 min 0 min 234 W/m 18,8 km/h (3 Bft) 93,62 %
11.07.2017 18:04 23,5 C 23,9 C 24,4 C 59 % 0 lf 1010,2 hPa 0,0 l/m 0 min 0 min 200 W/m 16,7 km/h (3 Bft) 97,87 %
11.07.2017 18:06 23,5 C 23,9 C 24,4 C 59 % 0 lf 1010,2 hPa 0,0 l/m 0 min 0 min 164 W/m 14,6 km/h (3 Bft) 97,37 %
11.07.2017 18:10 23,4 C 23,9 C 23,9 C 60 % 0 lf 1010,1 hPa 0,0 l/m 0 min 0 min 166 W/m 14,6 km/h (3 Bft) 97,87 %
11.07.2017 18:12 23,4 C 23,9 C 23,9 C 60 % 0 lf 1010,1 hPa 0,0 l/m 2 min 0 min 260 W/m 16,7 km/h (3 Bft) 95,74 %
11.07.2017 18:14 23,4 C 24,4 C 24,4 C 60 % 0 lf 1010,1 hPa 0,0 l/m 2 min 0 min 283 W/m 16,7 km/h (3 Bft) 97,87 %
11.07.2017 18:16 23,4 C 24,4 C 24,4 C 60 % 0 lf 1010,1 hPa 0,0 l/m 2 min 0 min 310 W/m 14,6 km/h (3 Bft) 97,83 %
11.07.2017 18:18 23,4 C 24,4 C 25,0 C 60 % 0 lf 1010,1 hPa 0,0 l/m 2 min 0 min 267 W/m 20,9 km/h (4 Bft) 93,62 %
11.07.2017 18:20 23,4 C 24,4 C 25,0 C 60 % 0 lf 1010,1 hPa 0,0 l/m 2 min 0 min 255 W/m 20,9 km/h (4 Bft) 97,87 %
11.07.2017 18:22 23,4 C 24,4 C 25,0 C 60 % 0 lf 1010,1 hPa 0,0 l/m 2 min 0 min 263 W/m 18,8 km/h (3 Bft) 97,87 %
11.07.2017 18:24 23,4 C 24,4 C 25,0 C 60 % 0 lf 1010,1 hPa 0,0 l/m 2 min 0 min 269 W/m 16,7 km/h (3 Bft) 95,74 %
11.07.2017 18:26 23,4 C 24,4 C 25,0 C 60 % 0 lf 1010,1 hPa 0,0 l/m 2 min 0 min 252 W/m 18,8 km/h (3 Bft) 95,74 %
11.07.2017 18:28 23,4 C 24,4 C 24,4 C 60 % 0 lf 1010,0 hPa 0,0 l/m 2 min 0 min 234 W/m 18,8 km/h (3 Bft) 95,65 %
11.07.2017 18:30 23,4 C 24,4 C 25,0 C 60 % 0 lf 1010,0 hPa 0,0 l/m 0 min 0 min 221 W/m 10,5 km/h (2 Bft) 97,87 %
11.07.2017 18:32 23,4 C 23,9 C 24,4 C 61 % 0 lf 1010,0 hPa 0,0 l/m 2 min 0 min 226 W/m 14,6 km/h (3 Bft) 97,87 %
11.07.2017 18:34 23,4 C 23,9 C 24,4 C 60 % 0 lf 1010,0 hPa 0,0 l/m 2 min 0 min 260 W/m 12,6 km/h (3 Bft) 95,74 %
11.07.2017 18:36 23,4 C 24,4 C 24,4 C 61 % 0 lf 1010,0 hPa 0,0 l/m 2 min 0 min 320 W/m 16,7 km/h (3 Bft) 95,74 %
11.07.2017 18:38 23,4 C 24,4 C 25,0 C 61 % 0 lf 1010,0 hPa 0,0 l/m 2 min 0 min 317 W/m 14,6 km/h (3 Bft) 95,65 %
11.07.2017 18:40 23,4 C 24,4 C 25,0 C 60 % 0 lf 1010,0 hPa 0,0 l/m 2 min 0 min 300 W/m 12,6 km/h (3 Bft) 95,74 %
11.07.2017 18:42 23,4 C 24,4 C 25,0 C 60 % 0 lf 1009,9 hPa 0,0 l/m 2 min 0 min 285 W/m 14,6 km/h (3 Bft) 91,49 %
11.07.2017 18:44 23,4 C 24,4 C 25,0 C 61 % 0 lf 1009,9 hPa 0,0 l/m 2 min 0 min 294 W/m 18,8 km/h (3 Bft) 93,62 %
11.07.2017 18:46 23,5 C 24,4 C 25,0 C 61 % 0 lf 1009,9 hPa 0,0 l/m 2 min 0 min 273 W/m 10,5 km/h (2 Bft) 93,62 %
11.07.2017 18:48 23,5 C 23,9 C 24,4 C 61 % 0 lf 1009,9 hPa 0,0 l/m 2 min 0 min 231 W/m 14,6 km/h (3 Bft) 93,62 %
11.07.2017 18:50 23,5 C 23,9 C 24,4 C 60 % 0 lf 1009,9 hPa 0,0 l/m 2 min 0 min 201 W/m 18,8 km/h (3 Bft) 95,65 %
11.07.2017 18:52 23,4 C 23,9 C 23,9 C 61 % 0 lf 1009,9 hPa 0,0 l/m 2 min 0 min 232 W/m 16,7 km/h (3 Bft) 95,74 %
11.07.2017 18:54 23,4 C 23,9 C 23,9 C 61 % 0 lf 1009,9 hPa 0,0 l/m 2 min 0 min 299 W/m 10,5 km/h (2 Bft) 93,62 %
11.07.2017 18:56 23,4 C 23,9 C 23,9 C 60 % 0 lf 1009,9 hPa 0,0 l/m 2 min 0 min 343 W/m 12,6 km/h (3 Bft) 95,74 %
11.07.2017 18:58 23,4 C 23,9 C 24,4 C 60 % 0 lf 1009,9 hPa 0,0 l/m 2 min 0 min 274 W/m 12,6 km/h (3 Bft) 95,74 %
11.07.2017 19:00 23,4 C 23,9 C 23,9 C 60 % 0 lf 1009,8 hPa 0,0 l/m 2 min 0 min 229 W/m 14,6 km/h (3 Bft) 95,74 %
11.07.2017 19:02 23,4 C 23,9 C 23,9 C 60 % 0 lf 1009,8 hPa 0,0 l/m 2 min 0 min 226 W/m 14,6 km/h (3 Bft) 95,65 %
11.07.2017 19:04 23,4 C 23,9 C 23,9 C 59 % 0 lf 1009,8 hPa 0,0 l/m 2 min 0 min 276 W/m 18,8 km/h (3 Bft) 91,49 %
11.07.2017 19:06 23,4 C 23,9 C 23,9 C 59 % 0 lf 1009,8 hPa 0,0 l/m 2 min 0 min 399 W/m 16,7 km/h (3 Bft) 89,36 %
11.07.2017 19:08 23,4 C 23,9 C 23,9 C 59 % 0 lf 1009,7 hPa 0,0 l/m 2 min 0 min 442 W/m 8,4 km/h (2 Bft) 91,49 %
11.07.2017 19:10 23,4 C 24,4 C 23,9 C 59 % 0 lf 1009,7 hPa 0,0 l/m 2 min 0 min 424 W/m 12,6 km/h (3 Bft) 91,49 %
11.07.2017 19:12 23,4 C 24,4 C 23,9 C 59 % 0 lf 1009,8 hPa 0,0 l/m 2 min 0 min 412 W/m 18,8 km/h (3 Bft) 93,62 %
11.07.2017 19:14 23,5 C 24,4 C 23,9 C 59 % 0 lf 1009,8 hPa 0,0 l/m 2 min 0 min 385 W/m 20,9 km/h (4 Bft) 93,48 %
11.07.2017 19:16 23,5 C 23,9 C 23,3 C 59 % 0 lf 1009,7 hPa 0,0 l/m 2 min 0 min 364 W/m 14,6 km/h (3 Bft) 91,49 %
11.07.2017 19:18 23,5 C 23,9 C 23,3 C 59 % 0 lf 1009,7 hPa 0,0 l/m 2 min 0 min 276 W/m 18,8 km/h (3 Bft) 93,62 %
11.07.2017 19:20 23,5 C 23,9 C 22,8 C 59 % 0 lf 1009,7 hPa 0,0 l/m 0 min 0 min 113 W/m 14,6 km/h (3 Bft) 93,62 %
11.07.2017 19:22 23,5 C 23,9 C 22,8 C 59 % 0 lf 1009,8 hPa 0,0 l/m 0 min 0 min 111 W/m 12,6 km/h (3 Bft) 91,49 %
11.07.2017 19:24 23,4 C 23,3 C 22,8 C 59 % 0 lf 1009,8 hPa 0,0 l/m 0 min 0 min 117 W/m 16,7 km/h (3 Bft) 93,62 %
11.07.2017 19:26 23,4 C 23,3 C 22,8 C 59 % 0 lf 1009,8 hPa 0,0 l/m 0 min 0 min 122 W/m 14,6 km/h (3 Bft) 93,48 %
11.07.2017 19:28 23,4 C 23,3 C 22,8 C 59 % 0 lf 1009,8 hPa 0,0 l/m 0 min 0 min 125 W/m 18,8 km/h (3 Bft) 91,49 %
11.07.2017 19:30 23,3 C 23,3 C 22,8 C 59 % 0 lf 1009,8 hPa 0,0 l/m 0 min 0 min 121 W/m 16,7 km/h (3 Bft) 93,62 %
11.07.2017 19:32 23,3 C 23,3 C 23,3 C 59 % 0 lf 1009,9 hPa 0,0 l/m 0 min 0 min 108 W/m 12,6 km/h (3 Bft) 89,36 %
11.07.2017 19:34 23,3 C 23,3 C 22,8 C 59 % 0 lf 1009,8 hPa 0,0 l/m 0 min 0 min 94 W/m 6,3 km/h (2 Bft) 87,23 %
11.07.2017 19:36 23,3 C 23,3 C 22,8 C 59 % 0 lf 1009,8 hPa 0,0 l/m 0 min 0 min 82 W/m 16,7 km/h (3 Bft) 95,74 %
11.07.2017 19:38 23,3 C 23,3 C 22,8 C 59 % 0 lf 1009,9 hPa 0,0 l/m 0 min 0 min 76 W/m 12,6 km/h (3 Bft) 95,65 %
11.07.2017 19:40 23,3 C 23,3 C 22,8 C 59 % 0 lf 1009,9 hPa 0,0 l/m 0 min 0 min 69 W/m 10,5 km/h (2 Bft) 95,74 %
11.07.2017 19:42 23,2 C 22,8 C 22,8 C 59 % 0 lf 1009,9 hPa 0,0 l/m 0 min 0 min 61 W/m 12,6 km/h (3 Bft) 95,74 %
11.07.2017 19:44 23,2 C 22,8 C 22,2 C 60 % 0 lf 1009,9 hPa 0,0 l/m 0 min 0 min 54 W/m 12,6 km/h (3 Bft) 100,00 %
11.07.2017 19:46 23,2 C 22,8 C 22,2 C 59 % 0 lf 1009,9 hPa 0,0 l/m 0 min 0 min 51 W/m 8,4 km/h (2 Bft) 97,87 %
11.07.2017 19:48 23,1 C 22,8 C 22,2 C 60 % 0 lf 1009,9 hPa 0,0 l/m 0 min 0 min 46 W/m 14,6 km/h (3 Bft) 100,00 %
11.07.2017 19:50 23,1 C 22,8 C 22,2 C 60 % 0 lf 1009,9 hPa 0,0 l/m 0 min 0 min 41 W/m 10,5 km/h (2 Bft) 93,48 %
11.07.2017 19:52 23,1 C 22,8 C 22,2 C 60 % 0 lf 1010,0 hPa 0,0 l/m 0 min 0 min 39 W/m 12,6 km/h (3 Bft) 100,00 %
11.07.2017 19:54 23,0 C 22,8 C 21,7 C 60 % 0 lf 1009,9 hPa 0,0 l/m 0 min 0 min 36 W/m 10,5 km/h (2 Bft) 97,87 %
11.07.2017 19:56 22,9 C 22,2 C 21,7 C 61 % 0 lf 1010,0 hPa 0,0 l/m 0 min 0 min 31 W/m 8,4 km/h (2 Bft) 100,00 %
11.07.2017 19:58 22,9 C 22,2 C 21,7 C 61 % 0 lf 1010,0 hPa 0,0 l/m 0 min 0 min 26 W/m 10,5 km/h (2 Bft) 100,00 %
11.07.2017 20:00 22,9 C 22,2 C 21,7 C 61 % 0 lf 1010,0 hPa 0,0 l/m 0 min 0 min 23 W/m 12,6 km/h (3 Bft) 100,00 %
11.07.2017 20:02 22,8 C 22,2 C 21,7 C 61 % 0 lf 1010,0 hPa 0,0 l/m 0 min 0 min 21 W/m 12,6 km/h (3 Bft) 100,00 %
11.07.2017 20:04 22,8 C 22,2 C 21,7 C 61 % 0 lf 1010,0 hPa 0,0 l/m 0 min 0 min 20 W/m 8,4 km/h (2 Bft) 97,87 %
11.07.2017 20:06 22,8 C 22,2 C 21,7 C 61 % 0 lf 1010,1 hPa 0,0 l/m 0 min 0 min 19 W/m 10,5 km/h (2 Bft) 91,49 %
11.07.2017 20:08 22,8 C 22,2 C 21,7 C 61 % 0 lf 1010,0 hPa 0,0 l/m 0 min 0 min 18 W/m 8,4 km/h (2 Bft) 97,87 %
11.07.2017 20:10 22,7 C 22,2 C 21,1 C 61 % 0 lf 1010,1 hPa 0,0 l/m 0 min 0 min 18 W/m 14,6 km/h (3 Bft) 100,00 %
11.07.2017 20:12 22,7 C 22,2 C 21,1 C 61 % 0 lf 1010,1 hPa 0,0 l/m 0 min 0 min 16 W/m 8,4 km/h (2 Bft) 100,00 %
11.07.2017 20:14 22,7 C 22,2 C 21,1 C 62 % 0 lf 1010,2 hPa 0,0 l/m 0 min 0 min 16 W/m 18,8 km/h (3 Bft) 97,87 %
11.07.2017 20:16 22,6 C 20,6 C 20,0 C 64 % 8 lf 1010,3 hPa 0,0 l/m 0 min 2 min 17 W/m 29,3 km/h (5 Bft) 97,87 %
11.07.2017 20:18 22,5 C 18,9 C 17,8 C 67 % 15 lf 1010,3 hPa 0,0 l/m 0 min 2 min 18 W/m 20,9 km/h (4 Bft) 100,00 %
11.07.2017 20:20 22,3 C 18,3 C 16,7 C 69 % 15 lf 1010,3 hPa 0,0 l/m 0 min 2 min 19 W/m 25,1 km/h (4 Bft) 100,00 %
11.07.2017 20:22 22,2 C 17,8 C 16,7 C 70 % 15 lf 1010,6 hPa 0,0 l/m 0 min 2 min 19 W/m 31,4 km/h (5 Bft) 97,87 %
11.07.2017 20:24 21,9 C 17,8 C 16,7 C 71 % 15 lf 1010,6 hPa 0,0 l/m 0 min 2 min 15 W/m 18,8 km/h (3 Bft) 100,00 %
11.07.2017 20:26 21,7 C 17,2 C 16,1 C 72 % 15 lf 1010,7 hPa 0,0 l/m 0 min 2 min 11 W/m 20,9 km/h (4 Bft) 100,00 %
11.07.2017 20:28 21,3 C 17,2 C 16,1 C 74 % 15 lf 1010,7 hPa 0,0 l/m 0 min 2 min 10 W/m 20,9 km/h (4 Bft) 97,87 %
11.07.2017 20:30 21,1 C 17,2 C 16,1 C 75 % 14 lf 1010,7 hPa 0,0 l/m 0 min 0 min 15 W/m 10,5 km/h (2 Bft) 100,00 %
11.07.2017 20:32 21,0 C 17,2 C 16,1 C 76 % 9 lf 1010,6 hPa 0,0 l/m 0 min 0 min 19 W/m 14,6 km/h (3 Bft) 100,00 %
11.07.2017 20:34 20,8 C 17,8 C 16,1 C 77 % 1 lf 1010,6 hPa 0,0 l/m 0 min 0 min 20 W/m 16,7 km/h (3 Bft) 100,00 %
11.07.2017 20:36 20,7 C 17,8 C 16,7 C 77 % 0 lf 1010,5 hPa 0,0 l/m 0 min 0 min 24 W/m 6,3 km/h (2 Bft) 100,00 %
11.07.2017 20:38 20,5 C 17,8 C 16,7 C 78 % 0 lf 1010,6 hPa 0,0 l/m 0 min 0 min 28 W/m 8,4 km/h (2 Bft) 100,00 %
11.07.2017 20:40 20,4 C 18,3 C 16,7 C 78 % 0 lf 1010,6 hPa 0,0 l/m 0 min 0 min 30 W/m 12,6 km/h (3 Bft) 100,00 %
11.07.2017 20:42 20,3 C 18,3 C 16,7 C 79 % 0 lf 1010,5 hPa 0,0 l/m 0 min 0 min 30 W/m 8,4 km/h (2 Bft) 97,87 %
11.07.2017 20:44 20,3 C 18,3 C 16,7 C 79 % 0 lf 1010,5 hPa 0,0 l/m 0 min 0 min 25 W/m 4,2 km/h (1 Bft) 97,87 %
11.07.2017 20:46 20,2 C 18,3 C 16,7 C 80 % 0 lf 1010,5 hPa 0,0 l/m 0 min 0 min 21 W/m 6,3 km/h (2 Bft) 100,00 %
11.07.2017 20:48 20,1 C 18,3 C 16,7 C 80 % 0 lf 1010,5 hPa 0,0 l/m 0 min 0 min 19 W/m 8,4 km/h (2 Bft) 100,00 %
11.07.2017 20:50 20,0 C 18,3 C 17,2 C 80 % 0 lf 1010,5 hPa 0,0 l/m 0 min 0 min 17 W/m 6,3 km/h (2 Bft) 100,00 %
11.07.2017 20:52 19,9 C 18,3 C 17,2 C 80 % 0 lf 1010,5 hPa 0,0 l/m 0 min 0 min 14 W/m 8,4 km/h (2 Bft) 95,74 %
11.07.2017 20:54 19,9 C 18,3 C 17,2 C 81 % 0 lf 1010,5 hPa 0,0 l/m 0 min 0 min 12 W/m 6,3 km/h (2 Bft) 100,00 %
11.07.2017 20:56 19,8 C 18,3 C 17,2 C 81 % 0 lf 1010,5 hPa 0,0 l/m 0 min 0 min 11 W/m 8,4 km/h (2 Bft) 97,87 %
11.07.2017 20:58 19,7 C 18,3 C 17,2 C 81 % 0 lf 1010,4 hPa 0,0 l/m 0 min 0 min 11 W/m 6,3 km/h (2 Bft) 97,87 %
11.07.2017 21:00 19,7 C 18,3 C 17,2 C 81 % 0 lf 1010,3 hPa 0,0 l/m 0 min 0 min 10 W/m 6,3 km/h (2 Bft) 100,00 %
11.07.2017 21:02 19,6 C 18,3 C 17,2 C 81 % 0 lf 1010,3 hPa 0,0 l/m 0 min 0 min 8 W/m 4,2 km/h (1 Bft) 100,00 %
11.07.2017 21:04 19,6 C 18,3 C 17,2 C 82 % 0 lf 1010,3 hPa 0,0 l/m 0 min 0 min 7 W/m 8,4 km/h (2 Bft) 97,87 %
11.07.2017 21:06 19,5 C 18,3 C 17,2 C 82 % 0 lf 1010,3 hPa 0,0 l/m 0 min 0 min 7 W/m 6,3 km/h (2 Bft) 100,00 %
11.07.2017 21:08 19,5 C 18,3 C 17,2 C 82 % 0 lf 1010,3 hPa 0,0 l/m 0 min 0 min 8 W/m 4,2 km/h (1 Bft) 95,74 %
11.07.2017 21:10 19,4 C 18,3 C 17,2 C 82 % 0 lf 1010,2 hPa 0,0 l/m 0 min 0 min 9 W/m 8,4 km/h (2 Bft) 97,87 %
11.07.2017 21:12 19,4 C 18,3 C 17,2 C 82 % 0 lf 1010,2 hPa 0,0 l/m 0 min 0 min 9 W/m 8,4 km/h (2 Bft) 97,83 %
11.07.2017 21:14 19,3 C 18,3 C 17,8 C 82 % 0 lf 1010,3 hPa 0,0 l/m 0 min 0 min 9 W/m 6,3 km/h (2 Bft) 95,74 %
11.07.2017 21:16 19,3 C 18,3 C 17,8 C 83 % 0 lf 1010,3 hPa 0,0 l/m 0 min 0 min 9 W/m 4,2 km/h (1 Bft) 97,87 %
11.07.2017 21:18 19,3 C 18,3 C 17,8 C 83 % 0 lf 1010,3 hPa 0,0 l/m 0 min 0 min 7 W/m 8,4 km/h (2 Bft) 97,87 %
11.07.2017 21:20 19,2 C 18,3 C 17,8 C 83 % 0 lf 1010,3 hPa 0,0 l/m 0 min 0 min 5 W/m 8,4 km/h (2 Bft) 97,87 %
11.07.2017 21:22 19,2 C 18,3 C 17,8 C 83 % 0 lf 1010,3 hPa 0,0 l/m 0 min 0 min 5 W/m 6,3 km/h (2 Bft) 100,00 %
11.07.2017 21:24 19,2 C 18,3 C 17,8 C 83 % 0 lf 1010,3 hPa 0,0 l/m 0 min 0 min 5 W/m 6,3 km/h (2 Bft) 97,87 %
11.07.2017 21:26 19,2 C 18,3 C 17,8 C 84 % 0 lf 1010,4 hPa 0,0 l/m 0 min 0 min 5 W/m 6,3 km/h (2 Bft) 91,49 %
11.07.2017 21:28 19,2 C 18,9 C 17,8 C 84 % 0 lf 1010,4 hPa 0,0 l/m 0 min 0 min 5 W/m 6,3 km/h (2 Bft) 97,87 %
11.07.2017 21:30 19,1 C 18,3 C 17,8 C 84 % 0 lf 1010,5 hPa 0,0 l/m 0 min 0 min 5 W/m 6,3 km/h (2 Bft) 95,74 %
11.07.2017 21:32 19,1 C 18,3 C 17,8 C 84 % 0 lf 1010,4 hPa 0,0 l/m 0 min 0 min 1 W/m 8,4 km/h (2 Bft) 89,36 %
11.07.2017 21:34 19,1 C 18,3 C 17,8 C 84 % 0 lf 1010,3 hPa 0,0 l/m 0 min 0 min 0 W/m 6,3 km/h (2 Bft) 95,65 %
11.07.2017 21:36 19,1 C 18,3 C 17,8 C 84 % 0 lf 1010,4 hPa 0,0 l/m 0 min 0 min 0 W/m 6,3 km/h (2 Bft) 95,74 %
11.07.2017 21:38 19,1 C 18,3 C 17,8 C 84 % 0 lf 1010,4 hPa 0,0 l/m 0 min 0 min 0 W/m 6,3 km/h (2 Bft) 93,62 %
11.07.2017 21:40 19,1 C 18,3 C 17,8 C 84 % 0 lf 1010,4 hPa 0,0 l/m 0 min 0 min 0 W/m 8,4 km/h (2 Bft) 97,87 %
11.07.2017 21:42 19,1 C 18,3 C 17,8 C 84 % 0 lf 1010,4 hPa 0,0 l/m 0 min 0 min 0 W/m 6,3 km/h (2 Bft) 95,74 %
11.07.2017 21:44 19,1 C 18,3 C 17,8 C 84 % 0 lf 1010,4 hPa 0,0 l/m 0 min 0 min 0 W/m 4,2 km/h (1 Bft) 95,74 %
11.07.2017 21:46 19,1 C 18,3 C 17,8 C 85 % 0 lf 1010,3 hPa 0,0 l/m 0 min 0 min 0 W/m 6,3 km/h (2 Bft) 91,30 %
11.07.2017 21:48 19,0 C 18,3 C 17,8 C 85 % 0 lf 1010,4 hPa 0,0 l/m 0 min 0 min 0 W/m 6,3 km/h (2 Bft) 93,62 %
11.07.2017 21:50 19,0 C 18,9 C 17,8 C 85 % 0 lf 1010,3 hPa 0,0 l/m 0 min 0 min 0 W/m 8,4 km/h (2 Bft) 85,11 %
11.07.2017 21:52 19,0 C 18,9 C 17,8 C 85 % 0 lf 1010,4 hPa 0,0 l/m 0 min 0 min 0 W/m 10,5 km/h (2 Bft) 95,74 %
11.07.2017 21:54 19,0 C 18,9 C 17,8 C 85 % 0 lf 1010,4 hPa 0,0 l/m 0 min 0 min 0 W/m 6,3 km/h (2 Bft) 95,74 %
11.07.2017 21:56 19,0 C 18,9 C 17,8 C 85 % 0 lf 1010,6 hPa 0,0 l/m 0 min 0 min 0 W/m 8,4 km/h (2 Bft) 93,62 %
11.07.2017 21:58 18,9 C 18,9 C 17,8 C 85 % 0 lf 1010,5 hPa 0,0 l/m 0 min 0 min 0 W/m 10,5 km/h (2 Bft) 93,48 %
11.07.2017 22:00 18,9 C 18,9 C 17,8 C 84 % 0 lf 1010,4 hPa 0,0 l/m 0 min 0 min 0 W/m 10,5 km/h (2 Bft) 93,62 %
11.07.2017 22:02 18,9 C 18,9 C 17,8 C 84 % 0 lf 1010,5 hPa 0,0 l/m 0 min 0 min 0 W/m 6,3 km/h (2 Bft) 93,62 %
11.07.2017 22:04 18,9 C 18,9 C 17,8 C 84 % 0 lf 1010,6 hPa 0,0 l/m 0 min 0 min 0 W/m 8,4 km/h (2 Bft) 91,49 %
11.07.2017 22:06 18,9 C 18,3 C 17,8 C 84 % 0 lf 1010,6 hPa 0,0 l/m 0 min 0 min 0 W/m 12,6 km/h (3 Bft) 89,36 %
11.07.2017 22:08 18,9 C 18,3 C 17,8 C 84 % 0 lf 1010,6 hPa 0,0 l/m 0 min 0 min 0 W/m 8,4 km/h (2 Bft) 89,36 %
11.07.2017 22:10 18,9 C 18,3 C 17,8 C 84 % 0 lf 1010,7 hPa 0,0 l/m 0 min 0 min 0 W/m 6,3 km/h (2 Bft) 91,30 %
11.07.2017 22:12 18,9 C 18,3 C 17,8 C 84 % 0 lf 1010,6 hPa 0,0 l/m 0 min 0 min 0 W/m 12,6 km/h (3 Bft) 93,62 %
11.07.2017 22:14 18,9 C 18,3 C 17,8 C 84 % 0 lf 1010,6 hPa 0,0 l/m 0 min 0 min 0 W/m 8,4 km/h (2 Bft) 93,62 %
11.07.2017 22:16 18,9 C 18,3 C 17,8 C 84 % 0 lf 1010,6 hPa 0,0 l/m 0 min 0 min 0 W/m 6,3 km/h (2 Bft) 91,49 %
11.07.2017 22:18 18,9 C 18,3 C 17,8 C 84 % 0 lf 1010,5 hPa 0,0 l/m 0 min 0 min 0 W/m 6,3 km/h (2 Bft) 95,74 %
11.07.2017 22:20 18,8 C 18,3 C 17,8 C 84 % 0 lf 1010,5 hPa 0,0 l/m 0 min 0 min 0 W/m 10,5 km/h (2 Bft) 91,49 %
11.07.2017 22:22 18,8 C 18,3 C 17,8 C 84 % 0 lf 1010,4 hPa 0,0 l/m 0 min 0 min 0 W/m 8,4 km/h (2 Bft) 91,30 %
11.07.2017 22:24 18,8 C 18,3 C 17,8 C 84 % 0 lf 1010,6 hPa 0,0 l/m 0 min 0 min 0 W/m 8,4 km/h (2 Bft) 93,62 %
11.07.2017 22:26 18,8 C 18,3 C 17,2 C 84 % 0 lf 1010,5 hPa 0,0 l/m 0 min 0 min 0 W/m 4,2 km/h (1 Bft) 95,74 %
11.07.2017 22:28 18,8 C 18,3 C 17,2 C 84 % 0 lf 1010,6 hPa 0,0 l/m 0 min 0 min 0 W/m 4,2 km/h (1 Bft) 97,87 %
11.07.2017 22:30 18,8 C 18,3 C 17,2 C 84 % 0 lf 1010,6 hPa 0,0 l/m 0 min 0 min 0 W/m 6,3 km/h (2 Bft) 97,87 %
11.07.2017 22:32 18,8 C 18,3 C 17,2 C 84 % 0 lf 1010,6 hPa 0,0 l/m 0 min 0 min 0 W/m 4,2 km/h (1 Bft) 93,62 %
11.07.2017 22:34 18,8 C 18,3 C 17,2 C 84 % 0 lf 1010,6 hPa 0,0 l/m 0 min 0 min 0 W/m 2,1 km/h (1 Bft) 95,65 %
11.07.2017 22:36 18,8 C 18,3 C 17,2 C 84 % 0 lf 1010,6 hPa 0,0 l/m 0 min 0 min 0 W/m 6,3 km/h (2 Bft) 97,87 %
11.07.2017 22:38 18,8 C 18,3 C 17,2 C 84 % 0 lf 1010,6 hPa 0,0 l/m 0 min 0 min 0 W/m 6,3 km/h (2 Bft) 100,00 %
11.07.2017 22:40 18,8 C 18,3 C 17,2 C 84 % 0 lf 1010,6 hPa 0,0 l/m 0 min 0 min 0 W/m 4,2 km/h (1 Bft) 100,00 %
11.07.2017 22:42 18,8 C 18,3 C 17,2 C 84 % 0 lf 1010,6 hPa 0,0 l/m 0 min 0 min 0 W/m 6,3 km/h (2 Bft) 95,74 %
11.07.2017 22:44 18,8 C 18,3 C 17,2 C 84 % 0 lf 1010,7 hPa 0,0 l/m 0 min 0 min 0 W/m 6,3 km/h (2 Bft) 100,00 %
11.07.2017 22:46 18,8 C 18,3 C 17,2 C 84 % 0 lf 1010,6 hPa 0,0 l/m 0 min 0 min 0 W/m 0,0 km/h (0 Bft) 97,87 %
11.07.2017 22:48 18,8 C 17,8 C 17,2 C 84 % 0 lf 1010,6 hPa 0,0 l/m 0 min 0 min 0 W/m 4,2 km/h (1 Bft) 100,00 %
11.07.2017 22:50 18,8 C 17,8 C 17,2 C 84 % 0 lf 1010,6 hPa 0,0 l/m 0 min 0 min 0 W/m 4,2 km/h (1 Bft) 100,00 %
11.07.2017 22:52 18,8 C 17,8 C 17,2 C 84 % 0 lf 1010,6 hPa 0,0 l/m 0 min 0 min 0 W/m 6,3 km/h (2 Bft) 100,00 %
11.07.2017 22:54 18,7 C 17,8 C 17,2 C 84 % 0 lf 1010,6 hPa 0,0 l/m 0 min 0 min 0 W/m 4,2 km/h (1 Bft) 100,00 %
11.07.2017 22:56 18,7 C 17,8 C 17,2 C 84 % 0 lf 1010,6 hPa 0,0 l/m 0 min 0 min 0 W/m 4,2 km/h (1 Bft) 100,00 %
11.07.2017 22:58 18,7 C 17,8 C 17,2 C 84 % 0 lf 1010,7 hPa 0,0 l/m 0 min 0 min 0 W/m 4,2 km/h (1 Bft) 100,00 %
11.07.2017 23:00 18,7 C 17,8 C 17,2 C 84 % 0 lf 1010,7 hPa 0,0 l/m 0 min 0 min 0 W/m 6,3 km/h (2 Bft) 95,74 %
11.07.2017 23:02 18,7 C 17,8 C 17,2 C 85 % 0 lf 1010,8 hPa 0,0 l/m 0 min 0 min 0 W/m 4,2 km/h (1 Bft) 100,00 %
11.07.2017 23:04 18,7 C 18,3 C 17,2 C 85 % 0 lf 1010,7 hPa 0,0 l/m 0 min 0 min 0 W/m 4,2 km/h (1 Bft) 97,87 %
11.07.2017 23:06 18,7 C 18,3 C 17,2 C 85 % 0 lf 1010,7 hPa 0,0 l/m 0 min 0 min 0 W/m 6,3 km/h (2 Bft) 95,74 %
11.07.2017 23:08 18,7 C 18,3 C 17,2 C 85 % 0 lf 1010,6 hPa 0,0 l/m 0 min 0 min 0 W/m 4,2 km/h (1 Bft) 97,83 %
11.07.2017 23:10 18,7 C 17,8 C 17,2 C 85 % 0 lf 1010,7 hPa 0,0 l/m 0 min 0 min 0 W/m 4,2 km/h (1 Bft) 97,87 %
11.07.2017 23:12 18,7 C 17,8 C 17,2 C 85 % 0 lf 1010,6 hPa 0,0 l/m 0 min 0 min 0 W/m 2,1 km/h (1 Bft) 95,74 %
11.07.2017 23:14 18,6 C 17,8 C 17,2 C 85 % 0 lf 1010,6 hPa 0,0 l/m 0 min 0 min 0 W/m 0,0 km/h (0 Bft) 97,87 %
11.07.2017 23:16 18,6 C 17,8 C 17,2 C 85 % 0 lf 1010,6 hPa 0,0 l/m 0 min 0 min 0 W/m 0,0 km/h (0 Bft) 95,74 %
11.07.2017 23:18 18,6 C 17,8 C 17,2 C 85 % 0 lf 1010,6 hPa 0,0 l/m 0 min 0 min 0 W/m 0,0 km/h (0 Bft) 97,87 %
11.07.2017 23:20 18,6 C 17,8 C 17,2 C 85 % 0 lf 1010,5 hPa 0,0 l/m 0 min 0 min 0 W/m 0,0 km/h (0 Bft) 97,83 %
11.07.2017 23:22 18,6 C 17,8 C 17,2 C 85 % 0 lf 1010,5 hPa 0,0 l/m 0 min 0 min 0 W/m 0,0 km/h (0 Bft) 97,87 %
11.07.2017 23:24 18,6 C 17,8 C 17,2 C 85 % 0 lf 1010,5 hPa 0,0 l/m 0 min 0 min 0 W/m 0,0 km/h (0 Bft) 97,87 %
11.07.2017 23:26 18,6 C 17,8 C 17,2 C 85 % 0 lf 1010,5 hPa 0,0 l/m 0 min 0 min 0 W/m 0,0 km/h (0 Bft) 95,74 %
11.07.2017 23:28 18,6 C 17,8 C 17,2 C 85 % 0 lf 1010,4 hPa 0,0 l/m 0 min 0 min 0 W/m 0,0 km/h (0 Bft) 95,74 %
11.07.2017 23:30 18,6 C 17,8 C 17,2 C 85 % 0 lf 1010,5 hPa 0,0 l/m 0 min 0 min 0 W/m 0,0 km/h (0 Bft) 97,87 %
11.07.2017 23:32 18,6 C 17,8 C 17,2 C 85 % 0 lf 1010,4 hPa 0,0 l/m 0 min 0 min 0 W/m 0,0 km/h (0 Bft) 97,83 %
11.07.2017 23:34 18,6 C 17,8 C 17,2 C 86 % 0 lf 1010,5 hPa 0,0 l/m 0 min 0 min 0 W/m 0,0 km/h (0 Bft) 100,00 %
11.07.2017 23:36 18,5 C 17,8 C 17,2 C 86 % 0 lf 1010,4 hPa 0,0 l/m 0 min 0 min 0 W/m 0,0 km/h (0 Bft) 95,74 %
11.07.2017 23:38 18,5 C 17,8 C 17,2 C 86 % 0 lf 1010,4 hPa 0,0 l/m 0 min 0 min 0 W/m 0,0 km/h (0 Bft) 100,00 %
11.07.2017 23:40 18,5 C 17,8 C 17,2 C 86 % 0 lf 1010,3 hPa 0,0 l/m 0 min 0 min 0 W/m 0,0 km/h (0 Bft) 97,87 %
11.07.2017 23:42 18,5 C 17,8 C 17,2 C 86 % 0 lf 1010,4 hPa 0,0 l/m 0 min 0 min 0 W/m 2,1 km/h (1 Bft) 97,87 %
11.07.2017 23:44 18,5 C 17,8 C 17,2 C 86 % 0 lf 1010,3 hPa 0,0 l/m 0 min 0 min 0 W/m 6,3 km/h (2 Bft) 100,00 %
11.07.2017 23:46 18,5 C 17,8 C 17,2 C 86 % 0 lf 1010,3 hPa 0,0 l/m 0 min 0 min 0 W/m 6,3 km/h (2 Bft) 97,87 %
11.07.2017 23:48 18,5 C 17,8 C 17,2 C 86 % 0 lf 1010,3 hPa 0,0 l/m 0 min 0 min 0 W/m 4,2 km/h (1 Bft) 97,87 %
11.07.2017 23:50 18,5 C 17,8 C 17,2 C 86 % 0 lf 1010,3 hPa 0,0 l/m 0 min 0 min 0 W/m 6,3 km/h (2 Bft) 100,00 %
11.07.2017 23:52 18,5 C 17,8 C 17,2 C 87 % 0 lf 1010,3 hPa 0,0 l/m 0 min 0 min 0 W/m 6,3 km/h (2 Bft) 100,00 %
11.07.2017 23:54 18,4 C 17,8 C 17,2 C 87 % 1 lf 1010,3 hPa 0,0 l/m 0 min 0 min 0 W/m 6,3 km/h (2 Bft) 97,87 %
11.07.2017 23:56 18,4 C 17,8 C 17,2 C 87 % 1 lf 1010,2 hPa 0,0 l/m 0 min 0 min 0 W/m 4,2 km/h (1 Bft) 97,83 %
11.07.2017 23:58 18,4 C 17,8 C 17,2 C 87 % 1 lf 1010,2 hPa 0,0 l/m 0 min 0 min 0 W/m 6,3 km/h (2 Bft) 97,87 %
_ Min-Zeit 05:58 04:34 04:36 16:30 00:00 01:14 - - - - 00:00 08:46
Minimum _ 15,1 C 14,4 C 13,3 C 54 % 0 lf 1008,7 hPa - - - - 0,0 km/h (0 Bft) 80,85 %
_ Max-Zeit 14:48 11:30 12:14 06:10 20:18 10:18 00:00 12:12 20:16 12:22 15:58 02:00
Maximum _ 25,0 C 32,8 C 32,8 C 88 % 15 lf 1011,1 hPa 0,0 l/m 4 min 2 min 1021 W/m 41,8 km/h
W-SW (6 Bft)
100,00 %
Durchschnitt _ 20,0 C 21,0 C 20,6 C 74 % 0 lf 1010,0 hPa #0,0 l/m #6:58 h #14 min. 316 W/m 17,0 km/h (3 Bft) 96,26 %
© 2017 W. Hausmann